GFSMA_250_spd_051.txt.gz
Wind_Speed
56 57 59 60 62 64 67 70 71 69 69 68 71 73 74 74 76 79 79 82 84 84 86 89 91 84 70 62 56 54 56 59 54 52 52 51 51 50 49 49 48 48 47
60 62 63 65 67 70 71 72 69 69 71 73 74 75 74 77 78 81 84 87 88 91 94 93 83 74 65 61 57 56 58 57 55 53 52 52 52 52 51 52 52 50 50
64 65 67 69 71 72 72 71 69 71 74 76 77 78 79 80 83 86 88 90 94 98 96 90 85 72 64 62 62 61 59 58 58 58 56 56 55 55 56 55 55 53 53
67 69 71 72 72 72 72 69 71 74 77 80 80 81 82 84 87 90 93 97 100 101 100 94 86 71 64 63 64 64 63 64 62 60 63 61 61 59 58 57 55 57 55
72 72 72 72 72 70 70 72 75 77 80 82 83 86 88 90 91 94 99 102 103 104 99 91 79 74 71 70 70 70 72 72 71 69 67 64 63 63 62 59 61 61 57
72 71 73 73 70 70 73 76 78 81 84 86 89 91 92 93 95 99 103 104 105 105 97 84 80 77 78 78 78 80 80 79 76 73 72 71 70 66 63 63 61 61 56
74 75 72 70 69 73 77 80 81 84 87 92 94 95 95 97 101 105 107 108 108 100 85 84 84 86 86 89 89 88 83 76 74 73 72 72 70 67 66 65 63 60 57
72 71 71 71 73 78 80 83 86 88 91 95 97 99 97 100 106 110 111 111 101 96 89 90 93 94 96 99 94 86 80 79 76 76 75 75 72 69 67 64 65 62 60
71 71 73 75 79 81 84 87 92 95 96 98 100 104 103 103 107 110 113 106 99 95 97 100 104 102 100 91 85 82 79 75 75 75 75 74 72 68 67 67 66 64 60
73 74 77 80 82 84 87 92 96 99 101 101 103 107 108 110 112 111 103 97 97 101 105 108 100 92 89 87 83 79 75 71 71 68 72 76 73 71 69 68 66 65 62
83 85 86 86 89 91 94 96 97 98 102 104 106 108 112 115 115 111 95 95 100 106 104 97 97 90 86 84 81 74 70 68 59 68 65 64 71 72 71 68 63 65 66
86 87 90 93 96 97 98 99 99 101 103 105 107 111 115 117 111 101 100 101 102 101 97 91 90 87 84 83 86 85 75 70 65 63 63 53 65 64 64 68 67 67 63
91 93 95 96 98 99 101 102 103 103 106 107 112 114 117 110 102 100 103 105 98 91 89 87 87 85 84 84 85 92 85 83 72 66 71 65 69 62 60 63 66 68 67
94 95 97 99 100 103 104 105 107 109 110 113 117 117 111 101 99 103 106 98 89 87 83 82 85 87 83 79 76 81 88 79 78 74 68 76 71 63 60 54 60 69 72
96 98 100 101 104 105 106 109 110 112 114 116 116 109 99 99 102 105 96 90 87 80 73 79 81 82 76 70 66 73 88 87 81 78 74 70 73 72 72 68 67 65 62
99 102 103 105 105 105 108 110 113 115 116 113 104 96 97 100 102 93 88 82 77 72 71 74 77 78 69 61 60 63 76 83 80 74 73 75 73 70 77 78 73 68 66
102 103 104 105 107 109 110 112 113 112 105 98 95 95 100 100 88 84 78 73 67 67 66 70 76 77 66 54 47 50 57 68 66 66 69 76 70 70 77 81 79 71 72
105 105 105 106 109 111 113 112 103 98 92 91 93 99 96 85 79 76 68 62 62 61 61 63 69 71 63 48 39 36 38 50 59 62 68 70 72 73 77 80 81 79 76
104 106 107 108 111 110 102 97 92 90 91 94 96 92 80 75 72 65 58 57 57 57 58 60 62 65 60 49 40 32 28 35 45 56 64 71 73 81 81 84 85 85 85
104 105 106 106 100 96 92 87 87 91 94 93 86 77 73 69 62 56 54 55 55 57 57 58 57 56 55 53 49 42 34 30 37 48 61 68 75 78 79 82 85 92 94
99 95 94 90 89 84 82 86 90 90 89 78 74 70 67 61 55 55 54 54 55 56 58 59 60 58 55 49 43 41 37 32 29 31 37 51 66 77 81 80 86 92 96
87 85 82 79 78 82 86 85 89 79 71 69 67 64 60 55 52 53 54 55 57 58 59 60 61 61 61 56 51 44 39 36 35 34 32 34 41 48 54 64 72 88 97
77 76 76 78 82 86 83 83 72 67 65 65 62 61 55 54 52 52 55 58 59 60 61 64 64 65 63 59 56 53 49 46 43 41 43 48 45 51 53 57 62 65 70
71 74 78 82 84 81 80 68 65 64 62 61 58 56 53 54 53 54 56 58 60 62 65 66 67 67 64 60 57 54 53 53 54 55 57 61 59 61 63 66 70 73 75
72 77 83 86 83 81 66 63 63 58 56 55 54 54 54 54 55 57 59 60 63 65 66 68 68 67 63 59 59 59 60 60 61 60 61 64 67 71 73 77 80 82 83
78 84 79 81 74 63 58 58 55 52 51 51 51 52 52 54 56 58 59 61 63 65 67 68 68 65 63 65 65 67 69 69 68 68 69 72 73 75 76 79 82 84 86

GFSMA_250_spd_054.txt.gz
Wind_Speed
50 51 53 54 54 56 58 61 62 64 67 69 68 69 68 70 73 76 76 79 82 84 86 85 88 90 91 93 88 77 60 53 50 51 49 49 49 48 47 46 45 45 45
55 57 57 57 58 61 63 65 66 69 69 70 70 69 70 72 75 77 80 84 88 88 88 90 91 93 95 95 85 70 57 52 52 54 53 51 50 50 50 49 50 49 48
60 60 61 62 62 64 67 66 70 70 71 71 70 70 73 76 79 81 84 90 91 91 92 92 95 98 98 96 80 65 61 58 58 57 57 60 60 59 56 53 52 52 51
62 65 67 67 67 68 69 70 71 72 74 71 70 72 77 80 82 84 90 92 93 94 95 97 99 102 102 92 77 68 68 67 69 68 67 68 66 63 61 59 57 55 54
67 69 70 70 69 70 71 72 74 76 72 72 73 78 82 83 84 90 94 95 95 98 98 102 105 106 101 89 78 74 77 78 79 76 72 70 66 65 62 62 60 57 57
70 70 73 72 71 72 74 75 75 74 74 76 78 83 85 86 91 95 98 97 100 101 103 107 110 108 97 87 82 85 87 82 75 71 69 66 64 66 63 63 62 61 59
72 73 73 74 75 74 75 77 75 75 78 80 83 86 88 91 95 98 100 102 102 104 109 112 110 105 97 91 91 93 85 80 74 69 64 63 60 63 64 64 62 60 58
75 75 75 75 75 75 75 75 79 80 81 85 87 88 90 95 97 99 102 103 106 110 112 113 108 101 95 97 98 90 83 76 71 67 63 62 63 63 65 66 66 63 59
77 77 77 78 78 77 76 79 82 83 85 88 91 93 94 94 97 101 103 106 111 114 116 111 103 98 100 101 93 84 79 74 67 63 61 57 55 59 63 62 66 65 62
78 77 77 78 78 79 80 82 82 84 87 90 96 99 100 99 100 101 103 108 114 116 108 102 99 101 103 93 85 80 73 67 67 62 58 55 49 47 48 58 62 62 62
79 80 79 80 81 81 81 83 85 88 93 97 98 100 101 104 106 106 106 113 115 109 103 99 100 102 93 86 79 71 69 68 69 69 68 60 55 50 53 65 54 61 63
81 82 82 83 84 86 87 90 93 95 97 99 99 101 103 107 106 110 114 115 110 102 98 98 101 91 84 78 70 70 71 70 72 71 70 72 64 58 54 61 57 55 56
86 86 87 88 90 93 95 96 97 97 98 100 102 104 104 106 110 113 114 108 101 95 97 101 89 84 77 69 69 70 73 74 76 71 68 82 71 66 61 66 68 62 58
90 91 92 93 94 95 97 98 99 99 101 103 105 107 108 110 113 112 107 100 95 94 97 83 80 76 67 65 67 69 74 78 71 65 64 70 73 65 66 65 70 64 62
93 94 94 95 96 98 99 100 99 102 106 108 107 108 110 112 110 104 99 98 95 92 81 76 73 66 65 65 68 70 75 79 68 57 56 62 69 69 69 67 69 71 72
96 97 97 99 99 100 102 103 106 106 107 107 108 110 110 106 101 96 97 95 93 83 74 72 63 61 62 63 67 68 69 70 59 48 44 51 63 71 67 66 67 71 70
102 102 103 103 103 103 105 105 105 107 107 108 107 105 101 97 93 94 94 93 83 75 72 64 60 59 61 64 66 68 67 62 58 42 34 38 54 65 66 65 71 72 80
103 104 102 102 105 103 101 103 104 104 103 101 98 95 92 90 91 94 91 80 74 70 67 60 59 59 61 64 67 68 64 58 55 51 39 34 36 51 56 63 68 72 79
98 99 100 100 99 99 100 101 100 98 96 92 90 87 86 89 91 89 79 73 69 67 61 58 57 57 61 64 65 64 64 60 51 42 39 35 31 38 50 55 61 64 74
93 94 94 95 96 96 95 95 94 90 88 86 84 84 89 88 87 76 70 69 66 62 56 57 57 58 60 63 65 64 60 56 52 47 39 34 33 32 36 50 63 66 70
89 89 92 92 95 92 92 88 86 84 82 81 83 88 85 83 72 68 68 65 62 56 55 58 58 60 63 65 65 63 60 56 50 45 42 40 38 37 36 36 42 51 61
90 94 92 92 90 85 83 80 79 78 79 82 88 83 77 69 68 67 65 62 55 55 57 58 60 62 66 66 65 63 59 53 52 51 51 48 48 47 45 47 47 48 49
91 87 84 79 77 75 73 73 76 78 81 84 79 70 66 66 65 62 60 55 53 56 58 59 61 64 66 67 66 63 57 54 54 53 56 59 56 58 56 57 58 59 61
78 71 66 69 70 66 70 74 77 81 78 74 66 64 64 62 58 56 53 51 53 56 57 59 61 64 66 66 66 62 58 59 60 59 61 64 65 66 65 66 68 68 69
57 63 65 62 61 67 73 76 73 74 68 63 62 61 58 55 52 48 48 49 52 54 56 60 62 65 66 66 64 62 64 65 66 66 68 71 72 69 67 66 67 69 71
61 61 59 62 64 70 77 75 73 63 60 60 58 54 52 50 49 48 48 50 52 54 57 61 63 64 63 62 64 68 70 71 71 72 74 77 72 66 65 65 66 67 67

GFSMA_250_spd_057.txt.gz
Wind_Speed
45 45 46 47 49 50 52 54 55 57 59 60 63 65 65 68 71 72 71 73 75 76 76 79 86 88 87 88 89 90 91 92 85 68 53 46 44 46 47 45 44 44 43
49 49 50 51 53 55 57 57 59 62 63 65 65 66 69 71 74 74 73 76 77 78 81 85 89 90 90 91 92 93 96 93 82 68 56 52 57 57 55 52 52 50 49
54 55 55 56 56 59 59 61 63 66 66 67 67 70 72 75 76 76 78 79 79 83 85 89 92 92 94 94 95 98 98 93 80 69 63 65 69 59 57 56 55 55 53
59 60 60 59 59 60 62 65 66 67 68 68 71 73 75 75 76 78 80 80 84 86 89 93 93 95 96 97 101 102 98 86 77 72 73 74 67 60 56 58 59 58 58
63 63 63 62 61 64 66 67 69 70 71 72 73 75 76 77 78 79 81 84 87 90 94 95 96 99 100 103 104 103 95 86 81 81 81 72 61 57 59 56 61 60 56
65 65 65 65 65 67 69 71 72 73 75 75 76 78 78 79 80 81 85 88 91 95 95 97 101 103 105 106 108 101 93 87 87 83 69 60 55 53 58 58 57 57 58
66 66 68 70 71 72 71 73 76 77 76 77 76 78 79 80 82 85 87 92 98 99 100 102 104 106 108 109 106 99 92 89 85 71 63 58 55 50 50 52 55 57 55
69 71 73 74 74 74 76 76 76 76 78 79 80 79 80 84 87 88 92 97 98 100 105 106 106 110 110 107 102 97 95 88 71 65 60 54 48 46 46 46 48 53 58
74 75 76 77 78 77 78 79 80 80 80 80 83 85 85 84 87 92 97 100 101 105 107 107 111 112 110 103 99 97 91 76 67 61 54 50 52 48 44 46 46 47 52
75 76 77 77 79 79 80 80 81 81 81 82 86 88 89 90 92 92 96 100 104 108 108 110 111 110 104 102 99 93 80 70 64 55 54 53 53 53 57 52 51 48 52
78 78 78 78 79 80 81 82 83 84 85 86 88 91 94 95 98 99 99 102 106 104 108 110 108 104 101 99 94 85 72 68 58 56 57 57 58 61 62 68 60 57 56
78 79 80 82 83 84 85 86 87 88 90 92 94 95 97 99 99 102 104 107 105 106 107 103 100 99 99 95 88 75 70 60 58 61 63 62 63 66 72 76 68 61 57
83 83 84 85 86 87 89 90 93 94 95 96 97 98 99 102 103 104 106 105 106 104 97 96 96 96 96 89 76 70 64 58 58 64 67 66 68 69 62 62 69 65 64
90 90 89 91 92 95 95 96 97 98 97 98 100 101 103 105 104 105 106 105 101 95 91 91 93 94 90 77 70 67 59 57 59 62 68 65 65 60 50 51 62 67 65
96 97 97 96 97 97 99 100 100 100 102 102 105 104 107 105 105 106 103 100 96 91 87 88 92 90 79 71 67 62 57 56 60 64 67 63 60 56 43 38 48 61 64
101 101 100 100 99 100 101 102 103 104 105 105 105 106 102 102 104 101 98 94 92 89 86 90 89 79 71 67 64 58 57 57 60 63 67 62 55 49 34 26 40 54 62
105 104 104 103 104 102 103 103 104 105 104 105 102 102 101 99 96 95 92 90 89 86 86 86 80 70 68 64 58 55 56 57 61 63 62 62 54 48 39 30 26 40 50
104 102 102 100 101 100 101 102 102 102 101 98 97 96 96 91 89 90 88 86 85 85 83 77 70 68 64 60 55 55 56 58 61 61 58 54 52 44 36 30 27 26 41
97 96 95 98 98 99 97 95 95 93 90 92 92 90 88 85 86 85 84 84 84 81 74 67 67 64 61 55 54 55 56 59 61 61 58 50 43 42 40 34 32 31 33
94 92 91 89 87 88 87 84 86 86 86 86 88 85 81 80 81 81 83 84 79 69 64 64 62 60 56 53 53 55 58 59 61 59 56 48 46 44 41 39 38 37 37
84 84 82 80 79 81 84 85 81 84 84 87 82 76 77 77 79 81 81 74 66 62 61 58 57 55 52 52 52 56 58 61 61 59 56 49 47 47 47 48 48 45 44
74 74 76 86 83 83 79 82 78 83 79 77 74 74 74 76 78 77 69 62 59 58 55 54 53 51 51 51 52 55 59 61 61 60 56 53 55 54 54 54 54 55 57
76 81 79 81 78 73 73 77 76 75 71 72 69 72 75 78 74 67 61 59 57 53 50 49 50 49 50 52 54 57 60 60 58 57 61 62 61 60 60 60 62 63 64
75 78 72 68 70 69 73 70 62 66 68 66 68 73 75 71 65 60 58 55 53 51 49 49 48 49 51 54 56 58 57 57 60 62 65 67 67 66 66 67 68 70 71
67 68 64 65 66 63 57 54 60 63 62 67 71 70 68 61 58 56 52 49 48 48 48 47 48 49 51 53 54 56 59 61 62 65 68 70 70 71 71 72 73 73 68
60 60 58 60 52 51 54 59 63 58 62 68 70 68 61 53 53 49 46 45 44 44 43 44 45 48 51 54 55 57 60 63 66 69 72 74 74 76 76 75 72 68 63

GFSMA_250_spd_060.txt.gz
Wind_Speed
44 44 44 44 45 47 48 49 50 53 54 56 57 59 62 63 64 66 68 71 73 74 73 75 75 77 79 81 87 91 92 95 96 94 91 81 69 59 50 48 49 52 50
48 48 48 48 49 50 52 53 55 58 58 58 60 63 65 66 68 69 73 74 75 76 75 75 76 80 82 86 92 93 96 98 98 96 92 79 69 63 61 62 64 59 49
52 52 52 52 53 55 56 57 59 62 61 61 63 66 68 69 70 74 76 77 78 77 76 78 80 82 86 93 96 98 99 101 101 97 88 79 72 71 69 67 60 54 50
56 56 56 57 58 58 60 61 63 63 62 65 67 69 70 73 74 76 78 79 78 77 77 81 82 86 92 97 98 101 104 104 102 95 86 81 79 74 66 57 51 47 50
61 61 61 61 61 62 63 65 65 64 66 69 71 72 74 75 75 77 78 79 78 79 81 84 88 93 97 100 102 104 105 106 101 93 87 84 77 67 57 52 48 46 48
64 64 64 63 64 67 66 66 66 68 71 73 73 76 77 78 80 79 77 78 81 84 86 90 94 98 100 102 105 107 108 104 96 92 87 81 70 59 54 49 42 43 46
67 67 68 67 67 67 68 68 69 72 76 77 78 79 80 81 81 79 79 82 86 90 94 97 99 101 104 106 108 109 108 100 93 88 86 76 63 57 46 40 39 39 41
70 69 69 70 69 70 71 72 74 77 80 79 79 79 79 80 81 84 85 89 93 95 98 102 103 105 107 109 111 111 104 96 91 84 77 65 63 51 41 40 38 39 42
74 73 72 72 71 72 75 78 77 76 77 79 81 81 81 81 83 87 92 95 98 100 101 103 106 109 111 112 110 104 100 92 88 82 68 61 55 48 45 41 42 44 45
68 70 72 72 72 73 75 77 78 78 79 80 81 83 83 85 86 88 94 99 101 103 106 108 110 112 111 110 107 100 96 91 86 74 65 59 54 49 43 46 50 50 52
71 71 71 72 73 75 77 78 79 79 80 82 84 85 88 91 92 94 95 99 102 106 110 111 113 113 112 109 98 97 93 87 81 67 63 60 54 51 50 48 48 53 55
83 81 79 78 78 79 80 81 83 85 86 87 89 93 95 96 98 100 102 104 107 107 109 111 111 111 107 98 95 92 88 83 71 64 62 57 55 54 54 54 54 52 53
85 84 83 85 86 86 87 88 89 90 91 93 96 98 100 100 102 104 106 109 107 109 109 110 108 103 95 93 90 88 84 76 65 63 60 54 54 55 57 55 52 53 54
91 90 89 89 90 90 91 93 94 96 98 99 101 102 104 105 107 110 107 107 108 109 104 101 100 92 91 88 86 84 78 68 64 61 57 52 54 58 58 54 52 53 53
94 96 96 95 94 95 97 100 100 100 103 104 106 107 109 110 109 108 108 108 108 96 93 93 87 90 87 85 84 80 70 66 62 58 52 51 53 58 58 54 50 47 43
101 100 100 100 101 101 102 103 105 104 106 108 109 107 108 108 108 106 104 99 97 94 90 85 87 85 84 84 81 73 65 64 60 55 51 50 53 55 56 57 53 46 36
107 108 107 106 107 107 106 106 107 108 107 107 105 106 104 101 104 98 93 94 88 86 83 84 84 83 83 79 72 65 64 60 56 52 51 50 52 51 55 52 51 47 36
113 112 112 111 110 110 110 111 109 107 103 104 106 102 98 98 89 92 87 85 86 83 82 82 82 81 78 71 65 64 60 57 52 51 51 51 50 51 51 51 44 40 34
115 113 113 114 112 112 110 108 102 103 100 102 98 96 90 87 85 84 84 83 80 81 81 81 80 77 70 65 64 60 57 54 51 52 51 50 51 52 50 47 44 40 39
109 106 107 107 104 103 101 98 97 98 95 92 93 88 87 79 81 85 82 79 79 80 80 78 73 67 64 60 58 56 54 52 51 51 51 51 51 52 47 45 46 48 46
93 91 89 88 89 90 89 88 86 87 86 80 83 80 76 78 77 80 75 76 77 78 75 69 64 61 56 55 54 52 50 49 50 51 52 52 50 49 51 51 50 49 50
83 83 77 80 82 83 83 81 80 77 84 82 74 73 75 75 78 73 72 74 74 72 67 61 59 55 53 51 51 49 49 50 51 51 50 50 52 53 54 55 54 54 55
84 81 82 80 76 75 75 73 75 74 67 72 69 72 70 71 70 68 68 71 72 65 59 56 54 52 51 50 50 49 48 47 48 52 52 50 52 56 58 60 62 63 63
78 74 77 75 73 70 70 70 71 68 65 67 68 69 63 65 67 67 69 70 65 57 54 52 49 48 47 45 44 45 47 49 50 51 53 54 56 60 64 66 67 68 69
71 72 73 72 70 68 65 64 61 65 64 64 62 57 61 63 67 67 69 69 62 55 53 51 48 46 45 47 48 49 50 51 52 54 57 60 64 67 70 72 72 72 72
66 67 66 65 64 61 58 60 60 61 62 56 56 59 61 67 68 68 67 68 62 57 55 55 54 53 53 52 52 52 53 55 57 61 64 68 70 73 76 77 77 75 72

GFSMA_250_spd_063.txt.gz
Wind_Speed
44 44 45 46 46 45 45 46 48 50 51 53 55 57 59 61 61 62 65 67 68 69 71 74 75 74 75 75 79 81 84 89 94 97 99 101 101 96 82 73 64 61 58
49 49 48 48 48 48 50 51 53 54 56 57 58 60 63 64 63 66 68 70 71 72 74 74 74 75 75 78 81 85 89 95 99 101 102 104 101 93 81 72 67 66 63
52 53 52 53 54 53 54 55 56 57 58 61 62 62 66 64 66 69 72 74 75 75 75 75 75 75 79 82 86 91 96 99 100 103 106 106 101 90 79 73 71 62 53
53 54 56 57 57 58 58 59 59 61 62 63 65 66 67 67 70 73 76 78 78 77 77 78 77 80 83 86 90 95 100 102 104 105 108 105 98 86 78 75 65 53 47
60 59 58 59 60 61 62 63 63 65 66 67 68 68 69 71 74 78 79 78 80 80 80 79 82 82 86 90 95 98 101 105 108 110 109 102 95 84 77 69 55 49 45
67 66 64 63 64 65 65 66 67 68 70 70 69 72 72 74 78 80 79 79 80 81 82 83 82 87 91 95 99 103 105 107 109 111 107 100 90 81 75 63 52 43 36
70 71 69 68 69 69 70 70 70 72 71 72 72 73 75 79 80 80 81 80 81 82 84 86 90 93 97 100 104 106 110 111 110 108 100 93 87 78 71 57 51 40 33
72 72 73 72 70 72 73 73 73 74 74 74 74 76 75 78 80 78 83 83 84 87 89 91 96 99 103 106 110 112 112 112 110 103 96 88 82 76 66 54 48 39 36
77 75 73 71 72 73 74 73 71 70 72 74 75 77 76 78 80 82 85 92 93 95 97 100 102 105 108 111 114 114 114 108 104 98 90 83 79 71 58 55 48 39 37
81 80 79 76 74 73 71 71 71 71 72 73 77 80 81 82 85 87 92 95 97 100 102 105 107 111 113 115 116 114 109 104 99 91 84 80 77 67 58 52 46 43 42
82 82 81 78 76 73 74 77 77 77 79 82 82 85 87 89 93 95 95 96 100 104 108 110 115 116 118 119 115 114 105 99 90 85 81 78 73 63 57 53 46 42 43
80 83 84 84 83 84 86 86 87 88 88 87 87 90 92 94 97 98 101 103 104 107 111 114 116 118 119 117 115 108 101 92 85 82 80 76 67 61 57 53 49 45 46
85 85 89 89 90 90 92 93 92 91 91 91 93 96 97 98 98 101 103 107 109 110 114 115 119 116 115 111 108 100 93 85 81 80 78 70 62 60 56 52 50 49 48
92 91 92 92 94 95 96 97 96 96 95 96 97 98 100 100 104 107 108 111 113 110 114 116 114 112 106 104 97 93 86 81 79 77 73 64 60 59 54 49 50 49 50
104 101 100 99 98 98 98 99 99 99 100 101 102 101 103 105 108 110 112 116 114 119 107 114 113 107 103 92 94 86 82 80 77 74 65 61 59 56 52 49 49 48 48
108 108 107 105 104 104 104 103 103 104 104 106 107 108 110 110 111 113 113 117 118 114 114 109 103 101 94 94 90 84 80 78 73 66 61 59 56 53 50 48 48 48 45
112 112 111 111 110 110 110 112 112 111 110 110 112 112 112 112 115 116 118 114 111 112 111 99 98 90 90 88 85 81 78 72 66 61 58 55 53 50 49 48 45 47 45
115 115 113 114 115 115 116 113 114 114 113 115 115 115 115 112 116 114 113 102 108 105 95 89 85 84 86 83 80 77 71 66 62 56 53 51 49 48 47 46 44 42 40
115 118 117 116 116 116 117 117 116 117 118 117 116 114 115 114 108 102 105 102 96 87 86 81 83 83 83 79 76 70 64 59 56 51 49 48 47 48 48 45 41 37 38
103 106 109 113 116 116 114 116 116 116 115 113 106 107 104 97 99 98 92 90 82 83 80 78 81 78 78 76 69 63 58 54 50 49 47 47 48 48 46 42 42 41 38
95 95 94 93 94 96 97 97 101 99 98 95 94 90 88 89 85 83 78 79 81 74 73 77 74 76 74 69 61 56 54 52 50 49 49 48 46 45 45 43 42 42 42
88 87 86 84 80 82 81 84 86 85 82 84 84 85 81 79 76 77 73 75 73 72 74 71 74 75 72 64 57 54 50 46 45 44 44 47 48 47 46 47 46 47 49
93 98 99 94 91 90 89 88 85 82 81 81 81 78 77 79 75 70 70 69 69 68 67 68 73 75 69 61 56 54 53 51 51 51 50 49 50 51 51 52 53 55 57
87 87 86 87 86 88 87 85 82 82 81 79 75 74 73 70 64 66 66 66 64 65 67 71 72 70 69 61 57 56 56 57 57 56 56 55 55 56 57 59 60 61 63
82 83 81 80 78 78 79 75 75 77 79 77 71 68 65 63 62 62 64 62 63 65 70 69 69 69 68 66 60 58 58 59 59 60 61 61 60 60 61 62 64 67 68
76 77 75 75 74 73 71 70 71 72 72 70 61 59 61 59 59 65 58 62 66 70 69 69 70 69 67 63 62 61 60 61 61 63 64 66 66 66 65 67 69 71 71

GFSMA_250_spd_066.txt.gz
Wind_Speed
41 40 43 45 45 44 44 45 47 48 49 50 52 54 55 57 60 62 64 65 64 65 67 69 72 73 72 73 75 76 77 79 83 88 93 99 103 104 102 96 91 78 70
44 44 44 45 48 50 51 52 53 54 54 56 56 58 60 61 63 65 65 65 66 67 69 71 74 75 75 76 77 79 80 83 87 92 98 104 108 108 102 93 88 76 71
49 50 48 48 49 50 53 56 57 58 59 60 61 62 64 65 67 67 67 67 69 71 72 74 75 76 76 77 79 83 85 88 92 98 104 108 111 107 99 94 81 75 69
54 53 52 52 54 55 55 56 58 60 61 62 63 64 66 68 69 69 69 71 72 74 76 76 77 76 77 80 83 86 89 95 99 103 107 113 111 103 97 88 77 73 67
58 57 57 56 57 60 61 61 62 64 65 65 66 68 69 70 71 72 73 73 74 74 77 78 78 80 81 85 88 89 93 99 104 109 111 114 110 101 95 82 75 70 62
61 62 64 63 64 65 65 67 67 68 69 70 71 71 71 72 74 74 74 76 74 75 77 79 82 84 88 90 91 94 99 103 108 113 117 113 104 98 88 79 73 68 58
74 72 72 69 65 66 68 70 71 71 72 73 72 72 71 69 71 71 75 76 77 79 83 84 85 89 92 95 97 100 103 107 112 117 116 113 104 94 86 74 70 67 55
73 71 70 71 73 73 70 71 72 73 73 72 71 72 74 74 73 71 76 82 84 85 87 91 91 94 96 98 100 107 107 112 116 118 114 111 101 91 82 71 69 62 52
74 74 75 73 74 75 75 76 78 78 74 75 76 76 75 74 76 79 82 87 90 91 93 95 99 100 102 103 107 108 112 115 119 115 114 106 95 87 77 71 65 58 49
75 72 73 74 75 75 77 79 79 79 77 78 77 80 81 80 81 83 88 90 92 96 98 102 104 105 107 110 112 113 116 118 117 115 109 99 90 80 76 69 62 53 51
79 76 73 72 75 76 78 82 84 83 84 84 85 85 86 86 89 90 91 94 96 98 101 102 110 110 111 114 116 118 119 122 117 112 105 94 83 77 75 69 60 51 48
85 81 78 78 78 79 78 80 80 82 84 85 86 88 92 94 95 97 95 97 99 100 104 107 112 115 115 119 119 119 123 121 113 109 96 87 79 75 71 64 55 52 48
92 91 91 86 81 78 80 82 82 83 84 86 88 92 95 96 97 98 100 101 102 106 109 113 115 118 117 119 121 121 124 115 110 100 90 82 77 72 66 57 53 51 48
100 99 98 95 93 90 88 88 90 91 92 94 94 95 96 97 98 99 101 103 106 110 113 114 117 119 121 123 118 121 117 108 101 93 85 78 73 66 60 54 51 48 46
105 104 105 104 103 103 103 103 102 103 102 102 101 103 103 103 105 106 108 108 112 110 113 117 118 122 121 123 119 115 104 101 93 86 79 73 67 61 55 49 47 44 42
107 107 107 107 108 108 108 109 110 111 109 110 112 111 110 110 112 113 113 113 112 115 115 117 118 124 123 118 114 104 96 92 84 78 74 68 61 55 49 45 43 41 39
108 108 109 109 109 110 111 110 111 111 112 113 115 114 115 113 114 114 112 114 113 114 119 118 116 115 110 109 97 93 87 82 78 73 68 61 55 49 44 42 40 39 38
109 108 108 109 109 110 110 110 111 113 115 114 115 115 117 116 116 116 113 110 113 113 112 115 113 107 99 88 88 76 80 80 74 69 62 55 49 44 41 39 38 38 38
107 109 108 108 109 109 109 110 110 111 112 112 113 115 116 114 109 114 106 110 105 107 102 93 94 89 87 80 74 76 79 75 71 66 58 49 45 43 40 38 38 37 36
108 108 108 108 107 107 107 106 105 104 104 103 102 102 101 99 102 98 97 97 102 89 88 87 85 81 76 71 72 76 73 73 69 63 55 47 43 42 40 40 39 39 39
105 103 104 103 104 105 105 104 102 99 97 97 95 92 94 90 87 86 85 85 88 87 80 81 77 73 70 69 71 70 71 71 68 60 54 51 47 46 45 47 45 44 43
105 104 105 105 104 104 101 100 98 93 92 91 91 89 90 94 92 84 85 88 82 80 79 74 67 68 66 66 68 68 71 68 67 58 52 52 51 50 51 51 50 49 48
103 102 101 100 100 99 95 96 93 88 88 89 91 93 94 90 91 89 84 76 75 74 71 67 64 63 65 65 65 70 68 68 65 63 58 54 52 53 53 53 53 54 54
95 96 96 95 93 94 94 92 91 89 89 89 88 89 87 86 85 83 80 72 68 64 64 60 62 65 67 66 67 68 69 68 65 62 61 58 55 54 55 57 58 57 57
87 88 87 88 88 87 87 85 84 85 85 84 82 81 79 76 75 74 69 64 58 61 59 58 61 65 65 65 67 70 69 69 67 67 65 61 60 59 60 59 58 60 59
79 80 80 80 80 79 80 78 79 80 79 76 75 73 70 67 65 61 58 53 54 56 58 61 61 66 67 69 69 70 71 70 70 71 66 60 61 61 61 61 60 60 60

GFSMA_250_spd_069.txt.gz
Wind_Speed
47 47 45 45 43 40 39 40 42 43 46 49 51 53 55 57 59 61 63 65 66 66 66 68 68 70 71 73 74 75 75 77 79 81 83 87 92 97 101 106 103 94 85
51 52 51 50 47 45 44 44 44 44 46 49 52 54 55 58 60 62 63 66 68 67 68 69 70 73 75 76 76 79 79 80 82 85 87 91 97 101 104 106 104 93 82
55 56 56 54 52 50 49 48 48 47 49 51 54 56 58 62 63 64 66 69 69 69 70 71 72 73 72 75 79 82 84 86 86 88 93 97 101 104 109 108 101 91 80
59 58 57 56 56 55 53 52 53 54 55 56 57 59 64 64 66 67 69 72 70 70 74 73 71 72 76 79 83 86 87 89 91 95 96 101 104 108 110 109 100 87 78
62 60 60 61 61 60 59 57 58 59 62 62 63 65 67 68 69 68 69 69 71 72 74 75 75 81 81 84 85 88 91 93 95 98 101 104 107 111 116 108 97 83 75
65 66 65 60 61 63 64 62 63 68 68 67 65 67 68 67 66 72 75 75 75 73 74 75 80 82 86 87 91 94 95 97 100 102 106 108 109 112 113 103 90 80 74
68 70 71 70 69 69 67 68 69 67 69 69 71 68 69 73 76 75 76 78 78 75 78 80 80 85 89 93 98 98 98 101 102 106 109 111 113 115 108 97 85 76 70
72 72 71 69 70 71 72 72 70 73 71 72 70 72 72 76 77 78 77 79 80 81 82 84 87 91 94 97 100 102 105 105 106 109 114 115 115 116 104 92 82 73 68
74 75 76 76 75 73 72 73 74 75 76 75 72 73 72 74 77 79 79 82 83 86 87 88 92 96 97 98 103 106 107 109 110 113 117 116 116 113 102 89 78 70 66
78 79 79 81 82 80 79 79 79 80 77 75 75 76 78 77 79 79 79 83 85 86 89 90 95 98 99 102 105 108 110 113 114 117 117 118 116 109 97 83 74 67 62
88 89 89 89 87 87 86 85 81 81 80 78 77 79 80 81 81 82 81 85 87 89 90 94 98 99 101 104 111 114 115 115 118 118 118 117 110 99 86 77 70 66 56
92 93 93 91 91 87 86 85 85 86 84 83 82 83 82 82 82 82 85 87 91 94 95 99 101 104 107 111 112 117 121 120 120 120 121 113 100 90 77 72 68 62 54
90 94 96 97 95 95 93 93 92 90 87 86 86 85 86 85 86 90 91 95 97 100 99 100 105 109 112 114 115 117 117 121 122 121 118 102 92 81 74 69 65 57 50
103 102 102 104 102 101 100 100 98 98 97 98 98 98 97 96 97 99 100 102 102 107 110 110 112 112 112 115 114 117 117 118 117 111 101 90 85 76 70 66 59 53 47
115 115 114 114 113 109 107 106 104 105 104 104 106 106 104 106 107 108 110 110 110 111 113 111 114 114 111 112 114 112 113 116 104 99 91 86 79 73 67 63 54 49 43
113 113 113 112 111 111 109 107 107 108 107 107 108 108 109 108 109 109 110 109 111 113 115 114 115 112 110 109 104 105 104 97 88 87 80 77 74 66 62 55 49 44 39
113 113 112 113 112 111 111 109 110 109 109 109 109 108 108 110 109 110 110 113 112 111 110 103 101 103 102 101 97 98 92 88 83 75 75 73 69 65 59 51 45 40 38
108 109 109 111 109 109 108 108 108 107 106 106 106 106 109 108 107 108 108 104 103 102 100 100 97 94 93 86 84 86 81 76 73 69 69 69 65 61 55 50 43 35 34
104 105 107 108 107 108 108 106 105 106 105 105 106 107 104 105 104 104 102 101 100 98 98 96 95 88 90 87 87 79 73 70 68 68 65 66 63 59 54 48 44 42 38
107 107 104 102 104 106 108 108 106 106 106 104 104 104 103 104 104 103 102 100 99 95 97 91 91 89 86 82 78 74 68 64 66 64 65 64 64 59 55 49 45 44 44
105 105 105 104 103 103 103 103 102 102 103 103 102 101 100 99 99 99 97 96 94 90 87 87 87 86 84 80 74 69 62 66 61 64 64 63 63 58 54 53 49 47 46
105 106 106 107 106 105 105 104 103 103 103 102 102 101 99 99 98 96 94 94 87 87 83 83 83 80 79 73 73 62 61 59 63 66 59 61 63 61 58 55 53 50 49
104 105 105 106 106 106 106 105 104 103 101 100 99 97 95 93 92 89 86 86 82 80 81 79 76 75 71 66 59 58 60 61 64 63 63 63 63 62 59 58 58 53 51
96 97 98 98 98 97 96 95 94 94 93 93 92 90 88 87 85 82 80 80 78 77 76 73 70 67 62 54 55 55 58 63 63 64 65 64 62 62 62 62 62 55 53
90 91 91 91 91 90 91 90 89 89 87 85 83 82 83 81 79 77 75 73 75 73 68 62 61 56 51 53 52 57 62 63 64 66 67 66 64 65 63 64 61 55 55
85 85 85 84 84 84 84 83 82 80 78 77 76 75 73 72 72 69 68 67 64 61 58 54 52 48 49 53 55 57 60 62 66 66 68 67 68 67 65 68 63 59 54

GFSMA_250_spd_072.txt.gz
Wind_Speed
44 45 45 45 46 45 47 47 46 45 43 41 42 43 44 47 48 51 53 55 59 60 64 66 68 71 70 72 73 73 72 79 79 80 80 83 83 86 88 91 95 101 100
46 47 48 47 48 51 51 51 51 50 49 47 48 49 49 50 53 56 58 60 62 62 66 67 69 72 75 76 76 78 79 80 81 82 86 87 88 90 92 96 101 102 104
54 55 54 54 55 56 56 56 56 54 52 51 52 53 54 55 59 60 64 65 65 67 66 67 75 74 76 77 77 81 83 86 86 87 88 89 91 93 95 99 104 104 102
60 61 60 58 59 59 60 58 56 57 57 57 57 59 58 61 63 65 67 66 67 66 69 76 78 76 76 77 81 84 86 88 91 94 93 93 96 98 100 107 108 107 105
64 64 64 63 65 64 62 61 60 60 61 62 62 65 65 64 63 67 68 68 67 72 76 77 80 80 78 81 82 85 91 93 95 98 99 98 100 103 108 109 111 108 99
68 69 69 69 67 67 67 65 64 64 66 65 64 64 63 66 69 68 70 71 73 75 76 77 79 80 82 83 84 87 92 95 99 104 105 107 108 109 111 111 110 106 86
74 73 71 69 68 67 68 70 69 66 66 67 68 70 73 72 73 73 76 78 78 77 77 80 79 82 84 85 85 88 94 98 101 105 109 113 116 114 114 113 107 92 75
79 78 74 71 72 71 70 72 72 73 69 68 70 72 74 78 79 82 84 79 77 78 76 78 84 85 84 84 86 91 95 96 102 108 113 118 118 120 116 112 96 81 73
73 69 70 76 73 73 75 76 77 78 79 79 77 79 83 85 86 81 79 81 82 80 84 81 84 87 85 86 90 94 96 97 104 111 114 118 120 118 112 100 86 76 66
76 76 80 82 82 84 84 86 85 84 87 87 88 88 83 81 82 79 87 85 84 84 82 85 85 89 87 90 96 91 96 104 109 113 117 117 114 111 101 91 79 73 65
74 76 72 78 83 86 85 86 86 84 85 83 88 90 90 83 83 82 79 84 85 85 85 86 86 89 94 97 97 99 103 106 112 115 116 113 108 103 95 89 79 69 64
84 83 88 90 89 91 89 89 90 90 91 88 88 86 87 88 87 86 85 86 89 90 89 93 97 100 99 99 102 105 108 112 114 114 109 105 103 98 89 83 76 67 61
100 101 93 94 94 90 90 91 90 91 91 93 94 95 96 95 95 97 98 98 98 99 100 100 101 103 104 108 108 109 110 111 110 105 102 98 97 91 84 76 71 63 58
99 105 107 107 103 101 101 99 97 96 94 96 93 102 102 100 99 105 107 106 106 106 106 106 107 107 106 107 109 110 109 105 101 100 94 95 92 89 80 71 66 62 56
106 103 109 110 108 109 108 108 111 113 110 107 110 114 113 113 113 110 107 107 106 105 106 104 106 106 106 107 107 103 100 97 100 100 93 91 90 84 71 66 64 59 54
119 118 118 116 119 118 119 121 121 121 120 119 117 115 110 109 109 109 109 108 106 106 105 104 103 103 102 100 97 96 97 97 96 92 89 85 79 70 66 63 61 57 54
113 116 117 117 117 118 119 119 118 117 116 114 112 110 109 107 107 106 104 102 101 100 100 100 100 98 97 97 97 94 92 90 90 88 86 76 71 68 60 61 59 56 52
112 111 111 112 112 113 113 113 114 113 112 110 109 105 105 105 105 102 101 102 99 100 100 101 99 98 97 95 92 90 87 86 82 81 77 73 68 63 58 57 59 54 51
116 113 111 109 107 106 104 106 108 109 107 106 105 103 102 101 100 99 100 99 98 98 97 96 95 94 93 92 92 91 88 83 78 72 73 66 64 60 56 55 58 54 53
115 114 113 112 111 111 111 111 111 110 109 107 106 105 103 100 98 98 96 97 97 97 96 95 94 93 92 92 91 88 80 77 75 71 70 62 58 58 53 56 54 55 53
114 115 114 114 113 112 111 110 110 109 108 107 107 106 104 102 101 100 99 97 98 98 98 98 95 93 90 87 85 79 74 71 69 66 62 56 57 56 56 54 53 54 53
108 109 110 110 110 111 110 110 110 110 109 107 106 105 104 103 102 100 98 98 96 94 93 91 88 83 81 78 77 74 71 71 66 60 55 53 54 57 55 56 55 55 57
106 107 107 108 108 108 108 108 108 109 109 108 108 106 105 102 100 97 93 92 89 86 83 82 79 77 75 73 73 71 69 66 61 52 51 50 55 58 58 58 56 56 58
101 103 104 105 105 105 105 105 106 105 103 100 98 95 92 91 90 89 86 83 83 80 77 76 74 72 71 69 65 63 62 57 51 49 48 54 57 59 59 58 56 58 60
94 94 96 96 96 96 96 96 97 96 95 93 91 89 87 86 85 82 78 77 75 73 70 67 68 65 62 59 57 57 53 48 45 48 54 56 59 61 61 61 59 62 64
89 90 89 89 89 88 88 89 90 90 88 88 87 86 83 81 79 77 73 71 69 66 65 64 62 57 54 55 51 48 47 47 48 53 55 57 62 64 63 63 62 64 66

GFSMA_250_spd_075.txt.gz
Wind_Speed
49 46 45 45 44 43 42 41 42 43 46 48 50 50 50 50 50 49 50 52 54 56 56 62 66 66 69 69 74 76 78 78 78 79 81 84 90 87 88 93 98 103 107
53 50 49 47 47 47 46 47 48 49 52 52 53 55 53 52 53 55 56 58 59 57 60 62 64 69 73 76 80 79 80 80 78 83 82 86 92 93 94 100 104 108 107
55 55 56 54 52 55 52 53 53 54 54 55 55 56 56 58 59 61 61 61 61 63 63 67 68 72 75 81 81 83 81 82 80 84 85 90 93 96 102 102 108 108 103
58 58 58 59 59 58 60 60 57 56 58 59 59 59 57 59 61 61 60 58 63 65 69 72 73 80 80 82 80 82 83 81 82 86 87 91 95 100 102 109 110 106 100
64 65 67 64 64 64 65 63 61 61 62 62 61 62 63 64 64 65 67 68 70 72 73 79 80 80 83 80 82 81 82 82 83 88 89 92 97 98 105 111 109 105 96
67 65 66 68 68 67 66 66 66 67 64 62 61 65 67 69 68 69 69 70 71 73 80 80 83 84 80 81 80 82 83 86 89 85 91 96 100 101 106 110 109 101 94
67 68 67 70 72 72 74 73 72 72 70 67 65 66 68 70 72 73 75 79 79 80 82 85 86 81 84 80 78 80 85 90 86 87 97 98 100 104 110 111 107 98 89
70 72 76 77 80 79 78 79 77 72 69 71 66 70 76 77 76 78 80 81 83 84 83 81 84 87 83 81 83 85 86 80 90 97 99 97 101 104 109 108 102 94 90
79 76 79 80 77 79 80 74 75 72 70 77 77 75 76 82 84 86 85 85 85 85 84 86 85 86 85 83 81 85 88 96 99 100 96 97 103 106 108 104 96 93 89
80 80 78 79 79 80 81 82 84 84 81 80 83 83 85 84 83 84 85 89 84 87 85 87 84 86 93 94 93 96 100 102 103 97 99 102 105 106 103 94 92 91 87
82 83 81 83 88 87 90 91 91 90 90 86 85 86 81 80 83 82 82 86 85 83 87 89 95 96 98 100 103 106 105 102 102 102 102 105 103 98 95 93 93 88 80
80 77 77 80 80 81 87 90 91 90 85 83 86 88 89 83 88 88 88 89 91 94 92 89 98 100 106 113 113 108 101 101 101 103 100 97 94 91 90 86 86 83 76
90 91 95 98 96 94 93 91 91 95 97 98 98 100 94 91 92 97 96 96 94 97 96 104 106 114 116 108 104 101 100 101 97 94 92 91 87 87 84 82 84 77 73
103 102 102 101 100 100 98 100 102 100 102 104 104 105 105 107 106 102 104 106 108 109 108 115 115 108 106 103 99 96 93 93 92 91 89 87 88 84 81 79 77 73 68
111 112 109 108 109 107 108 108 108 110 110 111 112 111 108 110 112 113 114 119 118 115 113 108 107 103 102 100 97 95 92 90 90 89 86 85 82 81 81 80 73 68 61
111 114 110 109 109 110 114 115 115 115 114 115 116 117 120 121 122 123 121 118 115 111 108 101 101 99 97 95 96 92 89 89 87 84 85 81 82 81 79 77 68 63 57
124 126 125 127 127 123 122 123 125 125 125 127 128 125 123 122 120 118 116 111 108 104 102 100 97 95 93 91 89 89 86 86 86 84 83 83 82 81 76 69 67 59 53
136 138 139 139 138 137 136 135 131 128 125 122 122 121 119 116 114 111 110 107 105 104 102 98 95 93 93 90 90 89 88 86 84 85 85 84 81 77 68 65 61 55 50
125 125 125 125 126 125 125 123 121 119 120 121 120 117 115 112 112 111 111 109 108 105 102 100 97 95 94 92 90 90 89 90 88 86 85 80 73 72 63 61 56 51 49
130 130 129 129 129 130 129 128 126 124 123 123 121 120 119 117 115 114 113 110 107 105 101 99 96 96 94 94 92 91 90 87 84 80 79 74 69 63 60 58 55 48 49
124 124 125 125 126 126 126 125 125 124 121 120 120 119 118 117 114 111 109 108 106 105 101 98 100 98 94 90 88 83 80 78 77 75 70 65 63 60 57 55 49 46 48
121 121 121 121 121 121 120 119 117 116 116 116 115 114 114 113 112 111 108 106 104 104 99 95 95 91 87 83 80 77 75 71 71 66 63 61 59 55 52 45 45 48 49
116 115 115 115 114 114 114 114 112 112 112 113 113 113 113 111 110 108 105 102 99 95 90 87 85 84 81 77 74 71 70 66 63 59 58 55 52 49 43 44 45 51 49
103 104 105 107 108 109 109 110 109 108 108 109 108 108 107 106 104 102 98 96 92 89 85 83 80 77 72 69 66 63 61 58 54 54 53 50 47 44 43 43 47 52 52
91 92 93 95 96 98 98 99 99 99 99 100 100 100 101 99 97 95 91 90 86 81 77 75 73 70 67 63 62 58 55 51 50 48 47 45 43 43 44 47 51 53 55
89 90 91 92 93 92 93 92 94 93 91 92 92 91 91 90 86 83 79 76 73 69 66 64 63 61 59 58 54 50 49 48 47 45 43 43 45 47 49 52 54 56 59

GFSMA_250_spd_078.txt.gz
Wind_Speed
47 47 46 44 42 46 44 43 42 42 43 42 43 44 47 48 46 49 50 49 51 54 56 56 55 59 63 67 70 69 75 78 78 80 77 78 81 86 87 86 94 100 101
49 49 48 47 48 48 48 47 48 47 46 48 49 50 49 48 49 50 50 52 54 57 54 56 61 65 69 72 73 77 77 77 76 79 79 81 83 85 83 89 98 100 103
52 51 51 55 51 49 51 52 52 53 53 54 56 57 55 52 52 52 53 57 59 61 64 61 64 70 73 75 76 80 80 77 79 80 79 81 79 80 90 95 99 105 99
51 54 52 51 53 53 54 55 57 58 61 60 59 58 58 57 56 56 57 58 59 62 63 66 68 72 74 75 79 81 81 78 82 79 80 76 84 88 93 101 104 100 96
50 50 53 54 53 57 60 59 61 61 62 62 61 62 62 61 59 61 60 63 66 67 66 70 71 73 77 80 80 80 82 82 82 78 77 85 89 95 100 103 99 95 97
54 58 58 60 62 60 57 62 65 65 64 64 65 70 69 68 64 62 67 69 72 72 71 76 77 79 78 78 82 81 83 82 77 81 86 91 95 102 106 98 92 96 95
77 71 69 66 65 65 67 64 65 68 70 69 70 72 72 73 74 71 78 78 72 72 77 77 75 76 75 80 78 79 81 78 85 84 92 98 104 107 94 93 95 95 90
75 79 66 69 73 70 72 71 75 76 75 75 77 76 77 78 76 79 76 74 76 75 77 80 77 78 80 82 83 84 85 89 90 96 104 105 108 99 95 92 92 87 83
72 70 73 77 80 84 85 81 81 79 82 84 80 80 76 77 77 76 76 79 78 78 81 81 81 81 84 87 86 88 89 91 97 102 112 110 97 93 89 86 84 80 80
79 79 81 84 84 85 85 86 89 88 86 85 85 82 83 81 85 84 86 87 87 84 89 90 86 91 89 89 92 93 93 98 109 114 112 98 91 88 85 83 81 80 76
81 86 86 86 92 97 90 92 94 91 94 95 94 91 92 89 90 86 85 89 87 88 87 88 87 91 100 102 96 103 105 110 111 103 99 94 88 85 83 82 79 75 72
84 83 86 87 86 73 89 92 91 96 99 98 97 94 91 91 94 90 85 83 92 94 93 103 102 102 103 105 111 110 115 109 103 97 93 90 90 84 83 77 74 74 70
81 88 90 91 93 95 99 99 102 99 98 94 95 95 96 91 91 95 95 95 94 95 98 104 108 107 116 116 117 113 110 103 97 93 91 87 84 80 78 75 74 70 68
91 92 93 99 102 100 103 107 107 102 100 101 105 104 107 109 105 103 103 106 108 107 111 111 114 118 120 114 114 108 102 96 94 90 86 83 78 77 76 75 73 70 70
105 107 104 96 104 111 109 109 110 106 106 111 115 113 113 117 115 115 113 111 113 113 116 122 125 119 117 112 106 102 96 94 92 87 83 82 80 76 75 74 72 73 70
103 114 110 109 110 108 106 112 117 115 113 119 118 114 118 117 114 119 124 127 128 128 132 119 118 117 114 109 103 99 97 95 90 85 84 81 79 78 76 76 75 72 67
110 111 109 111 118 117 113 115 121 123 123 118 119 120 120 122 128 134 136 138 139 137 121 119 115 111 109 105 101 99 95 92 88 86 83 82 80 79 79 76 72 69 65
113 116 120 123 122 121 122 125 128 130 131 134 136 135 135 138 140 139 137 131 128 127 121 115 113 110 107 105 101 96 94 91 88 86 85 85 82 80 76 73 68 64 61
136 139 137 134 134 135 134 134 135 137 140 141 145 145 141 136 133 132 136 130 126 123 120 117 112 109 104 100 98 96 94 91 89 88 86 82 78 73 71 69 65 61 56
140 143 145 146 146 146 146 147 148 148 143 141 139 138 138 139 136 131 129 127 126 123 117 113 109 107 103 100 98 97 93 89 85 81 77 75 71 68 67 63 63 56 53
137 137 137 140 141 142 144 145 147 147 145 143 142 139 136 133 133 133 130 124 119 116 114 111 109 106 103 98 96 93 89 83 80 77 75 70 66 64 62 58 55 52 49
147 145 146 146 146 147 150 147 143 141 139 138 137 135 132 128 126 122 121 120 116 113 110 108 105 101 97 93 88 85 82 78 75 73 68 65 61 57 56 54 51 48 45
138 137 137 137 137 136 135 134 133 132 130 129 128 127 124 122 121 118 114 111 109 106 104 101 99 96 91 87 83 84 80 74 72 67 62 59 55 51 49 47 45 42 40
119 120 121 122 124 124 123 122 123 123 122 120 118 115 113 111 108 106 104 104 103 100 99 96 92 88 83 77 73 72 68 66 65 61 59 55 49 47 45 43 40 38 37
103 103 104 105 106 107 107 107 107 107 107 105 103 101 100 100 99 98 98 99 94 90 86 79 73 68 64 61 59 59 59 58 57 55 51 49 46 44 42 40 39 40 41
94 94 95 97 98 98 98 96 96 96 96 95 93 94 91 91 91 91 89 85 79 73 67 62 58 55 52 50 49 49 51 49 49 48 46 45 44 43 42 40 42 45 45

GFSMA_250_spd_081.txt.gz
Wind_Speed
44 43 38 38 39 41 41 41 40 40 42 42 42 41 44 43 44 47 49 48 49 46 51 53 55 57 58 58 61 65 65 70 72 71 75 74 75 78 71 77 81 94 98
48 50 48 47 47 46 45 46 44 46 47 44 46 47 48 49 50 52 51 50 52 52 50 55 58 60 64 63 60 65 67 68 69 70 74 76 77 77 81 81 92 96 100
53 51 51 53 53 51 50 49 51 52 50 48 49 50 52 53 55 54 53 52 53 54 56 59 64 67 67 65 63 68 69 70 69 74 78 78 79 81 84 85 94 104 98
50 49 46 41 48 51 52 53 54 51 47 51 53 56 56 56 56 58 59 60 58 58 59 66 65 68 63 63 66 73 71 71 71 78 77 80 79 87 86 94 102 99 90
48 40 36 39 47 49 50 51 52 52 53 52 53 55 56 59 60 61 63 65 63 64 67 66 65 63 65 71 76 77 75 77 73 80 80 83 87 87 97 102 104 92 85
48 52 58 56 54 56 56 56 58 64 59 55 58 60 61 64 66 68 69 65 66 68 70 69 69 72 77 74 76 76 79 80 78 76 85 92 91 102 101 105 95 84 83
62 67 73 77 73 72 75 72 78 75 75 68 70 68 72 70 71 71 69 69 69 68 73 72 75 79 81 80 74 75 78 80 80 90 87 90 99 102 101 98 89 84 80
72 71 77 84 84 86 84 83 81 84 72 74 74 74 77 78 76 74 72 73 73 74 78 81 83 83 84 80 77 80 81 84 89 91 96 99 103 104 99 91 86 84 81
69 71 70 71 78 81 80 80 79 80 82 79 80 82 85 85 79 76 76 75 79 84 86 82 85 82 87 83 84 85 87 93 100 98 106 112 105 98 94 89 84 78 76
73 69 69 75 76 72 73 78 79 81 85 88 92 93 88 86 82 85 85 86 94 89 87 87 85 83 89 95 87 94 97 98 104 108 114 108 104 98 89 83 81 75 72
73 78 77 82 85 88 78 85 86 89 89 95 97 92 82 76 85 85 89 97 99 87 88 90 96 94 101 94 104 100 99 105 113 117 113 108 99 93 88 84 78 73 69
68 62 63 72 80 82 85 86 88 92 91 99 98 92 88 89 88 90 92 100 98 94 93 98 101 102 104 107 106 104 106 115 115 108 105 100 96 90 85 80 75 72 69
72 77 75 78 71 80 81 81 84 87 93 97 97 98 96 99 100 101 101 94 93 96 98 101 104 110 104 108 108 115 118 116 118 115 106 102 94 88 84 78 74 73 69
88 83 84 82 80 80 83 86 92 96 98 101 102 108 104 103 105 110 107 102 102 101 106 109 114 106 115 120 122 125 127 120 119 109 106 100 94 86 81 78 73 71 68
88 90 91 91 91 92 96 105 107 108 101 105 106 106 110 108 110 112 115 110 107 110 114 118 116 122 129 128 131 129 118 123 114 109 106 99 91 83 79 76 73 71 69
101 102 98 96 101 106 109 109 113 114 113 115 117 117 117 118 120 120 117 120 118 125 122 123 131 132 135 136 132 130 129 119 114 111 101 94 87 83 79 77 74 73 70
113 116 114 111 107 111 114 117 116 120 121 126 123 117 116 121 126 118 118 119 123 127 131 129 137 140 142 141 139 129 122 119 112 103 99 92 87 83 79 77 75 73 69
116 121 112 114 114 117 115 124 128 128 125 120 116 117 122 124 117 121 117 124 129 131 143 146 142 140 142 134 126 123 120 111 107 102 96 91 87 83 79 77 72 68 64
125 125 131 131 132 130 122 122 129 127 126 122 125 129 135 126 130 135 139 143 146 150 149 141 144 146 135 131 126 119 113 108 101 96 92 88 84 80 75 71 67 64 59
120 125 127 128 133 130 130 133 130 130 132 136 140 141 142 142 144 149 154 150 145 142 146 149 143 135 128 122 116 109 102 99 95 91 87 82 79 75 69 66 62 58 55
134 135 139 138 139 136 139 135 139 142 146 146 145 149 152 156 157 148 145 147 152 151 145 139 133 125 118 109 104 103 97 93 91 89 85 80 75 72 67 63 59 56 53
147 143 148 149 148 150 149 149 152 154 154 154 156 152 148 149 147 150 157 150 145 141 135 125 116 110 105 103 100 96 93 89 87 82 78 73 67 64 62 59 54 50 49
153 156 157 157 161 160 159 155 150 150 149 149 149 152 156 158 158 151 144 137 129 120 114 110 106 103 99 96 94 89 81 73 70 67 63 61 57 54 53 51 49 47 45
155 155 156 157 156 154 157 157 158 157 155 156 156 157 156 148 140 131 124 117 112 108 105 102 100 97 90 86 78 69 63 58 57 55 51 50 47 46 46 45 44 43 43
159 159 160 161 159 158 159 157 151 149 146 142 137 134 130 124 118 113 109 106 102 99 96 95 91 84 76 69 61 57 54 51 47 45 44 42 42 41 41 42 41 41 41
136 137 139 137 133 132 129 124 121 121 118 118 115 112 110 105 101 101 99 94 93 90 86 81 74 68 63 58 54 51 47 44 41 39 37 38 39 39 40 40 39 39 39

GFSMA_250_spd_084.txt.gz
Wind_Speed
55 57 58 55 50 48 44 39 38 36 37 38 38 39 41 41 40 42 42 44 46 49 51 51 52 52 55 52 56 55 58 60 65 67 64 68 71 69 78 81 84 91 103
54 57 54 50 48 45 41 42 44 42 42 42 45 46 47 46 45 44 46 51 53 54 54 58 57 57 58 57 59 56 59 64 67 71 71 73 71 72 80 86 88 98 102
48 51 49 50 50 48 50 48 48 50 50 49 48 49 50 47 47 48 51 54 56 57 59 59 60 60 62 62 63 63 65 70 73 72 74 75 74 79 84 89 95 102 104
54 51 52 56 54 51 49 48 52 52 52 51 51 52 52 50 48 48 53 56 58 60 59 61 64 67 66 68 70 70 72 75 75 77 81 78 79 82 86 93 98 98 93
58 56 57 58 57 50 50 45 42 47 50 50 49 50 52 54 58 63 66 65 65 62 62 66 65 65 65 68 73 78 78 77 79 79 79 82 85 86 84 94 101 101 95
61 58 63 60 54 55 51 48 48 48 51 50 52 56 63 65 73 76 75 67 63 66 67 68 68 66 67 70 79 79 77 76 80 83 85 82 89 89 96 98 99 102 96
65 61 62 60 56 55 58 57 63 66 69 73 75 76 76 77 77 77 74 72 68 70 71 75 72 71 75 78 84 81 76 79 81 84 91 90 93 99 101 106 103 104 91
64 59 63 67 69 73 68 72 75 76 75 77 79 81 84 83 81 78 78 74 71 74 77 77 73 81 85 81 86 77 78 82 85 91 92 92 101 106 110 103 101 103 89
66 69 66 68 74 79 82 83 83 83 85 87 89 85 86 82 84 81 80 78 78 78 75 67 71 87 81 83 83 78 82 85 90 96 98 98 105 110 115 119 106 105 91
78 81 82 82 82 83 91 89 92 89 90 87 91 85 88 87 86 84 83 81 76 70 73 78 87 97 92 90 90 86 86 91 96 97 99 105 110 119 117 114 109 99 94
81 81 79 78 82 74 68 77 76 76 78 82 80 89 94 94 93 85 87 83 82 86 88 90 94 95 96 102 104 98 99 98 101 106 109 112 122 126 123 121 111 99 95
87 87 86 78 80 83 85 82 82 84 85 84 87 86 89 100 90 93 88 88 93 96 95 93 97 101 108 104 106 102 99 101 104 107 114 122 131 120 122 122 112 101 90
74 73 75 72 73 80 76 84 83 88 92 95 90 90 89 88 84 89 93 96 101 103 101 103 109 114 113 104 104 103 104 106 111 124 125 131 126 125 126 117 108 96 85
75 72 66 69 68 72 71 72 72 71 76 85 81 86 77 86 92 92 98 99 107 109 107 108 114 121 108 105 104 105 108 115 127 130 131 127 130 132 120 110 96 91 85
78 84 83 82 84 87 89 81 78 80 82 79 84 83 89 93 98 98 104 110 112 110 112 120 120 111 111 111 106 116 121 128 133 135 137 137 135 127 113 107 99 87 82
94 92 96 92 85 90 89 90 92 90 91 89 93 95 99 97 104 109 112 114 115 114 119 120 123 122 117 115 127 130 137 136 144 141 138 138 129 121 110 94 89 84 79
98 95 95 95 96 100 100 98 100 98 94 100 101 101 112 118 111 119 119 119 122 122 123 123 131 128 122 133 136 137 140 144 144 142 143 130 116 101 92 85 82 78 75
89 94 96 95 93 93 97 98 96 94 92 104 109 110 118 118 124 125 116 120 131 132 137 141 128 133 138 136 145 144 150 146 141 141 129 113 100 92 87 83 79 76 73
102 99 101 105 104 100 103 104 102 114 108 107 112 114 120 119 124 128 130 135 137 138 131 134 136 138 140 144 150 148 145 138 141 121 108 98 94 89 85 82 77 73 70
104 103 105 111 110 112 114 121 118 114 115 124 130 135 131 132 133 137 140 143 138 136 138 143 143 143 151 153 147 147 145 131 117 105 99 96 93 88 81 79 74 69 63
118 120 122 123 125 125 125 127 127 132 134 135 137 138 142 144 145 147 140 142 144 146 148 149 149 158 159 152 159 140 124 112 104 101 96 94 86 78 70 65 61 58 55
139 137 139 141 137 135 136 134 137 141 142 142 145 150 147 148 144 140 145 147 149 151 150 158 161 155 156 153 129 119 109 105 101 94 86 76 67 63 57 52 49 47 45
145 147 147 146 139 141 142 146 145 145 149 154 156 154 159 156 155 150 151 154 158 160 161 160 159 153 138 125 115 108 105 100 90 76 69 62 58 53 49 45 40 37 37
149 146 147 148 147 147 151 153 151 149 152 154 157 158 156 155 159 157 160 157 161 160 159 156 144 128 116 109 105 101 94 81 71 64 59 55 51 47 42 39 35 34 34
155 156 152 154 156 156 158 157 157 157 151 157 159 164 166 163 163 165 159 163 160 166 155 135 120 109 103 99 96 86 73 66 58 54 50 48 44 40 36 33 32 32 33
158 161 164 161 162 158 164 162 158 162 161 165 162 163 164 164 167 170 162 169 156 135 121 111 105 99 93 88 79 67 60 57 52 47 44 40 39 36 32 30 30 30 31

GFSMA_250_spd_087.txt.gz
Wind_Speed
59 56 50 48 52 53 55 54 56 54 53 44 40 35 35 38 38 40 41 42 42 43 46 49 50 53 56 54 55 59 58 60 60 63 66 74 68 66 72 74 79 82 88
57 54 55 54 57 58 56 55 56 53 45 43 41 44 44 44 45 44 45 46 45 45 45 49 55 60 58 58 59 62 66 66 67 71 74 77 70 72 76 77 79 86 88
61 58 56 56 58 55 54 53 51 53 47 46 49 50 50 48 49 47 47 44 45 43 52 59 58 64 60 61 62 63 67 66 71 72 75 79 71 74 78 81 80 86 89
63 60 54 54 54 47 45 46 47 50 51 52 51 51 51 48 50 49 50 48 48 51 58 62 66 68 63 65 64 64 67 66 66 75 73 71 75 77 77 83 85 88 94
53 54 51 52 50 46 50 52 51 54 53 53 53 48 46 47 53 51 49 48 60 63 67 69 71 74 69 66 69 69 67 71 73 79 77 79 80 78 80 83 85 91 101
58 55 54 55 52 49 52 56 57 57 57 56 55 52 50 50 53 52 58 64 68 67 71 70 72 71 70 72 73 68 63 69 79 85 84 75 72 76 79 84 92 95 106
60 55 57 57 59 58 55 58 60 62 63 62 60 61 58 57 62 66 67 70 72 77 78 79 74 74 75 72 63 68 74 78 83 88 85 76 77 81 85 88 99 108 109
63 62 59 61 62 64 61 59 60 63 65 65 67 71 73 74 75 76 82 82 88 83 85 79 78 77 67 69 70 76 77 82 88 91 88 84 88 92 91 95 110 111 116
71 66 66 60 66 61 58 57 61 64 69 74 79 83 86 90 90 93 97 94 94 90 85 83 84 73 77 76 75 75 82 85 91 96 90 95 93 93 90 103 112 118 118
75 71 78 75 68 66 64 60 65 66 75 77 83 88 92 96 98 99 99 95 96 86 89 82 84 81 80 76 85 87 86 87 95 96 96 101 101 99 109 114 118 119 121
79 78 78 74 68 69 70 68 71 73 70 85 86 87 84 88 85 86 84 88 95 93 90 94 88 76 84 81 85 93 91 96 100 106 110 112 104 104 122 121 123 126 127
88 87 84 82 80 81 84 80 81 81 84 79 80 79 78 80 94 90 92 95 95 91 96 88 77 81 83 84 91 95 102 101 105 109 111 111 108 120 127 124 130 128 133
97 98 90 86 86 83 83 81 80 81 83 85 81 81 85 88 89 94 94 97 95 88 83 83 85 88 88 95 98 103 107 111 109 113 118 121 124 128 131 132 138 144 131
84 84 83 85 87 84 83 84 90 89 87 88 88 88 90 92 91 93 90 90 83 83 89 87 92 91 93 102 107 108 116 107 116 125 126 122 128 136 132 135 141 132 109
91 92 86 80 81 86 86 86 89 92 91 86 88 88 93 92 84 89 92 95 88 92 96 96 97 99 99 108 107 111 106 118 124 128 131 131 134 135 139 145 133 108 96
85 86 86 92 88 89 88 87 92 94 91 91 89 87 90 96 94 94 96 96 98 101 103 104 102 103 111 110 109 108 125 127 126 133 130 131 140 144 150 136 114 103 90
89 87 90 89 90 92 91 89 91 94 92 89 92 95 98 101 98 99 102 102 103 103 105 103 100 117 113 108 119 127 124 132 134 134 139 144 148 153 140 126 98 94 88
101 105 102 99 92 94 96 98 98 101 97 95 95 99 100 102 101 106 105 107 107 103 104 106 115 108 109 123 126 129 135 136 140 142 145 149 151 146 123 103 94 90 86
102 104 98 97 98 98 98 99 101 102 103 104 106 105 106 108 109 108 110 111 112 104 113 115 116 118 124 131 134 137 138 141 137 144 147 146 145 135 108 99 94 88 80
109 111 108 106 104 102 102 106 104 105 106 107 107 109 112 114 109 110 114 111 119 121 115 122 126 134 135 137 139 142 146 153 155 157 153 153 126 109 101 94 86 72 62
112 110 112 108 104 106 109 109 111 114 113 113 115 115 112 113 115 118 120 117 124 132 127 136 135 138 144 143 143 143 147 148 150 153 143 127 114 103 95 82 69 62 52
116 120 121 117 115 118 118 119 114 116 115 118 119 118 113 118 122 128 129 126 130 137 142 142 147 151 151 149 147 146 144 148 152 154 146 115 105 96 82 69 59 52 46
122 122 124 129 127 123 125 124 127 130 129 126 126 125 129 133 131 134 132 137 143 147 152 149 146 155 150 154 146 151 155 153 155 133 112 105 95 82 69 58 51 44 40
136 132 127 126 130 131 132 131 131 131 133 130 133 135 137 138 140 142 145 155 155 155 152 155 156 152 154 151 160 157 156 150 135 113 102 93 80 67 58 50 44 40 37
146 148 147 146 144 139 137 135 138 139 140 141 142 143 141 148 147 153 157 159 158 157 153 153 156 154 157 155 159 156 159 141 114 102 90 77 64 57 49 43 39 36 33
157 158 156 156 152 151 156 157 159 158 159 158 157 161 161 160 162 160 159 160 160 159 159 157 161 160 151 142 148 147 120 101 96 89 71 62 55 49 42 38 33 29 28

GFSMA_250_spd_090.txt.gz
Wind_Speed
64 61 61 58 62 57 57 50 53 54 49 53 53 51 51 47 44 35 37 39 41 41 40 41 40 40 41 46 55 58 58 61 59 60 63 58 64 67 60 61 67 76 72
64 62 61 60 61 63 52 52 48 49 54 55 55 52 49 42 41 40 44 46 44 43 44 42 41 41 43 53 57 61 64 63 63 65 62 56 65 68 60 64 77 76 81
62 61 58 56 56 52 49 58 57 55 56 56 50 47 47 47 47 48 48 47 44 47 47 46 45 45 47 51 57 65 64 65 66 63 55 59 64 69 74 72 83 79 84
63 58 60 62 58 60 62 62 58 56 57 51 42 43 46 46 51 53 51 50 48 50 49 49 50 50 53 60 68 70 66 67 63 60 62 66 68 69 79 81 89 91 88
61 62 61 62 61 63 61 56 53 57 54 49 47 47 47 48 51 54 52 50 52 52 52 51 53 58 64 72 73 70 70 70 65 60 63 74 72 74 80 85 87 88 94
61 63 61 62 61 57 57 55 55 57 56 52 49 52 52 55 54 56 55 55 56 55 53 57 66 68 78 81 78 72 77 73 63 62 66 74 78 84 79 83 91 96 100
59 59 58 62 61 61 57 53 54 57 57 57 53 55 55 58 58 61 59 58 60 58 64 70 74 80 83 83 85 82 78 79 65 67 72 71 83 82 78 84 95 99 106
60 59 59 60 62 64 67 63 58 60 62 59 60 56 56 60 61 64 64 62 66 72 74 78 80 83 84 87 86 79 80 75 71 71 73 76 85 81 85 91 99 105 106
60 59 61 59 58 67 67 65 64 61 70 65 61 58 59 65 66 69 69 73 76 78 81 84 86 86 82 81 78 78 72 76 69 72 76 78 83 83 85 95 101 104 112
66 65 63 65 66 65 63 63 62 61 67 64 63 61 69 69 68 71 76 79 82 83 87 88 85 80 81 83 84 85 78 80 72 74 82 76 85 84 86 103 108 115 118
67 72 70 72 68 67 66 72 72 65 65 62 64 71 72 73 76 81 79 86 90 88 83 86 80 87 93 83 86 84 78 76 74 77 86 81 88 88 94 110 115 116 122
66 68 68 69 72 71 74 73 76 75 79 76 71 72 75 79 80 82 84 85 88 89 88 89 96 95 89 90 87 85 80 80 79 78 87 85 90 94 99 107 115 121 126
77 77 78 79 79 78 76 78 80 81 82 78 78 79 83 84 86 86 91 93 93 97 96 97 97 92 93 92 88 87 86 88 85 84 86 90 93 95 107 117 119 132 130
87 88 85 81 86 82 80 80 85 85 83 86 86 88 90 95 99 96 95 94 99 97 98 97 98 96 100 96 91 92 92 92 88 89 90 94 98 102 117 121 130 131 129
93 89 96 91 93 97 93 86 87 88 92 89 91 90 94 92 91 94 97 98 95 98 95 94 95 99 100 98 95 97 97 94 93 95 94 102 96 111 122 132 135 135 134
96 96 96 98 96 100 92 90 85 90 86 86 88 89 89 90 94 96 96 98 96 95 95 98 97 99 100 98 99 101 100 100 96 101 104 107 104 121 128 130 137 134 132
102 101 93 101 95 91 89 89 88 85 91 92 93 93 94 96 96 94 95 95 95 97 97 100 102 103 104 102 102 104 102 104 101 108 107 111 122 130 139 138 142 139 133
93 98 100 97 98 97 97 96 97 96 90 90 95 96 94 97 96 100 100 98 100 102 104 106 108 107 109 104 108 106 105 108 113 114 109 120 129 138 147 145 139 130 117
96 100 97 97 94 100 105 103 103 96 98 102 102 102 103 103 106 106 103 107 109 109 109 108 112 111 110 113 112 112 113 112 109 113 123 129 137 146 145 142 139 129 105
98 97 98 99 100 100 99 99 99 99 99 104 103 106 105 106 106 107 109 107 107 110 111 112 113 117 115 117 114 115 116 113 118 125 128 136 146 146 144 146 126 122 104
105 101 105 105 104 106 104 105 104 109 104 104 106 106 108 106 110 109 113 112 112 109 115 114 116 119 119 123 119 120 119 123 131 134 134 146 145 142 140 130 118 100 88
110 109 109 111 109 113 112 115 115 113 111 108 109 107 105 109 114 117 114 114 117 113 118 123 120 123 124 124 127 125 129 136 138 138 143 144 145 141 135 137 118 94 80
118 120 121 123 118 118 123 120 122 120 116 115 117 116 116 116 116 119 120 118 118 119 118 127 127 126 127 131 136 138 141 139 141 140 150 149 144 131 135 107 98 84 68
132 134 129 127 124 126 126 128 129 127 125 122 123 124 123 123 122 124 124 123 124 131 131 131 134 134 134 137 141 139 147 151 151 153 149 150 143 135 116 96 84 71 60
137 137 141 142 140 138 140 146 142 134 134 129 131 133 131 129 129 126 130 129 135 133 135 139 137 137 142 142 145 151 155 150 146 148 143 135 118 113 95 89 73 61 53
147 151 155 154 151 150 150 146 144 142 140 140 143 139 137 136 135 137 137 138 141 143 146 144 141 145 145 151 153 156 151 158 153 144 117 124 125 98 88 75 63 55 47

GFSMA_250_spd_093.txt.gz
Wind_Speed
66 65 68 62 61 60 57 54 53 54 55 55 51 49 49 50 51 48 49 45 42 39 36 40 41 40 40 41 41 40 42 45 60 64 65 60 59 60 57 65 55 64 69
71 69 69 66 61 59 57 56 55 56 62 59 57 49 55 58 52 50 50 45 43 43 41 43 44 42 43 42 44 44 47 60 67 65 67 65 62 62 54 54 61 63 68
75 70 67 66 67 61 57 55 55 55 53 53 50 48 53 56 54 50 46 45 46 46 49 48 48 47 47 46 46 47 53 64 70 70 68 64 66 54 60 59 59 63 63
67 67 70 70 69 62 59 58 58 59 48 55 56 60 56 55 56 47 45 41 43 46 48 49 48 48 51 52 49 52 59 63 69 74 71 67 62 57 62 58 59 60 61
67 68 69 67 68 65 66 64 59 60 63 60 58 60 57 57 59 50 47 48 49 44 47 47 50 52 55 53 55 57 61 69 74 73 72 69 69 59 61 60 63 63 66
67 64 63 65 64 64 64 63 59 58 59 59 62 59 56 62 59 54 48 48 50 49 51 50 52 54 57 58 61 65 68 70 75 76 75 72 66 64 62 63 64 66 65
64 59 62 62 62 65 66 62 60 59 58 59 59 57 49 52 65 63 56 55 54 53 55 56 59 55 58 64 65 68 72 75 79 77 75 69 72 65 61 61 65 65 68
74 59 61 63 58 59 61 57 57 60 61 62 61 64 60 64 65 63 63 63 59 58 58 61 61 62 63 64 71 72 76 76 75 73 72 67 71 68 65 64 68 71 72
73 65 62 64 64 58 56 60 64 63 66 66 68 65 64 64 70 71 68 63 61 59 64 67 66 66 67 73 75 81 79 81 77 71 68 71 76 70 69 69 73 77 75
78 67 63 66 61 57 59 59 63 69 72 69 69 67 66 65 71 72 71 69 67 64 67 70 69 76 75 80 85 83 80 78 73 73 74 77 76 75 74 73 76 81 80
91 78 73 64 63 62 63 61 71 69 71 70 70 73 71 70 73 76 77 72 73 71 74 77 78 81 82 85 83 86 84 80 79 77 76 83 79 79 76 80 84 89 87
83 77 77 79 70 67 64 66 68 70 73 76 75 71 73 73 70 75 77 79 75 81 76 80 84 85 86 84 83 87 83 87 79 77 83 83 84 85 83 83 86 84 95
85 82 82 84 80 76 76 78 76 78 77 76 77 76 76 76 81 81 82 83 83 84 86 87 88 87 84 86 88 91 91 84 85 86 85 85 89 88 90 89 90 93 90
85 88 82 92 83 82 88 85 87 84 84 80 80 80 80 80 79 83 85 88 88 90 90 87 88 89 87 91 93 92 88 90 89 87 88 91 93 90 93 95 96 98 98
94 92 83 90 89 90 89 95 85 86 82 82 81 81 81 80 80 78 80 83 89 87 87 89 90 93 95 96 92 94 91 91 92 92 95 94 95 94 95 94 99 101 103
101 97 85 87 92 96 100 96 92 92 92 89 88 87 87 87 86 86 88 85 89 91 89 92 93 92 94 95 96 97 95 97 99 95 95 98 99 99 101 102 101 103 113
99 96 96 92 92 94 99 102 98 96 94 99 97 91 93 93 97 88 86 87 90 94 93 93 94 96 93 98 102 102 97 101 101 100 100 99 101 102 104 105 106 110 118
100 92 95 101 98 97 93 103 107 109 103 100 102 105 101 105 99 105 101 98 97 98 99 96 97 102 102 105 108 103 102 102 103 104 106 104 104 109 108 107 108 117 124
100 104 101 98 104 100 103 100 104 105 111 109 107 112 111 112 107 102 103 101 101 99 99 98 101 104 105 106 105 103 107 104 107 108 108 108 109 107 112 116 118 121 132
92 94 102 110 107 111 108 105 103 101 103 106 110 103 106 108 104 103 108 112 107 99 98 102 105 107 105 108 105 103 110 111 110 113 110 114 111 114 119 124 122 129 132
104 111 102 99 103 115 118 110 106 106 105 104 108 110 103 102 106 102 101 103 98 100 99 104 104 105 109 108 108 111 109 114 113 115 112 117 115 120 124 131 130 134 137
112 109 108 107 110 110 106 109 114 108 107 107 105 104 97 102 101 104 102 103 98 99 103 105 105 108 112 110 110 113 118 110 119 120 119 124 126 134 134 132 131 144 139
112 114 117 118 114 117 115 116 110 109 109 110 112 109 109 108 105 107 108 105 106 106 107 108 113 108 110 114 117 119 115 122 123 125 127 132 131 135 136 142 146 137 127
131 125 124 125 124 124 124 125 121 117 115 116 117 117 118 118 112 110 112 114 114 110 110 112 113 112 116 119 122 128 123 130 128 131 136 136 136 137 143 149 136 148 128
130 132 135 133 133 134 134 130 131 131 130 133 129 129 126 127 127 124 122 117 123 118 112 119 120 126 128 130 131 131 134 137 134 137 141 138 142 144 148 150 138 124 102
132 140 141 147 144 145 143 145 146 145 145 141 143 142 139 140 135 135 133 131 127 129 135 128 132 134 135 130 134 133 137 137 134 138 139 144 145 141 138 132 103 95 83

GFSMA_250_spd_096.txt.gz
Wind_Speed
69 73 72 70 69 66 63 59 58 56 54 54 52 51 52 53 53 48 45 54 51 45 46 46 45 40 38 39 39 42 44 46 43 45 47 53 61 61 63 65 62 50 58
67 71 72 73 70 69 68 63 61 61 59 56 55 55 54 54 54 50 50 51 48 48 48 47 45 45 46 47 45 44 46 45 47 49 52 56 63 67 66 69 64 60 58
69 69 74 69 70 70 67 64 64 62 57 57 55 55 53 53 52 54 60 53 52 50 48 45 43 42 45 43 43 46 47 51 53 54 56 59 65 69 70 67 68 59 59
65 69 73 70 74 74 69 69 66 64 63 61 56 53 53 58 58 53 55 57 58 52 46 46 41 40 42 42 44 44 50 52 53 55 57 62 65 70 74 73 64 63 56
67 71 75 79 77 75 71 73 70 69 70 69 63 60 57 51 53 54 56 61 59 52 50 50 48 46 45 44 46 46 48 53 55 58 58 66 66 71 72 66 67 61 63
75 70 74 75 73 70 70 69 71 70 69 70 65 66 65 61 61 62 61 60 58 56 54 53 54 54 52 53 49 47 48 51 57 60 59 63 71 72 73 69 63 58 63
65 64 66 65 68 68 71 68 68 69 68 68 66 67 63 59 60 63 58 56 53 57 58 60 62 62 61 61 53 53 53 54 58 63 68 73 69 74 69 66 60 62 63
61 72 64 59 60 59 60 62 62 64 68 67 65 66 65 62 62 64 63 63 65 65 60 57 62 65 65 62 58 61 58 61 63 67 71 72 69 70 68 69 60 62 63
83 74 71 66 62 60 58 56 58 60 65 62 63 58 66 62 65 65 65 64 64 64 64 62 65 71 72 66 68 62 58 67 64 73 77 73 72 68 70 67 64 66 68
88 84 73 79 62 62 65 59 57 61 61 62 52 50 59 67 67 66 66 66 66 68 64 63 70 72 76 74 76 65 68 69 75 81 79 70 71 76 76 71 69 68 72
92 89 84 72 74 72 73 73 78 67 66 67 67 65 63 63 63 69 71 73 75 72 73 71 72 76 76 77 71 74 70 79 78 80 77 77 78 81 75 73 71 73 73
98 90 88 87 85 78 75 76 69 67 66 68 67 70 73 70 77 79 79 74 75 77 74 71 73 71 76 74 75 74 81 82 86 82 80 80 81 80 79 79 75 77 81
85 92 95 89 87 86 88 80 84 76 71 71 75 77 73 80 81 80 74 78 80 79 71 74 78 81 82 84 81 82 87 80 82 84 87 81 80 87 76 81 81 83 81
82 81 88 93 69 72 85 76 72 76 82 85 84 82 81 82 80 76 76 78 78 79 79 81 82 81 83 83 86 90 84 82 90 89 83 85 87 89 84 85 85 89 87
76 83 83 83 79 79 79 77 79 84 86 83 86 85 81 83 87 85 87 88 86 88 88 85 84 87 88 91 87 87 88 102 97 87 86 87 90 94 89 89 86 86 90
86 92 86 86 93 93 93 91 91 92 94 89 88 83 86 86 89 94 88 91 94 88 90 93 95 95 92 89 88 91 94 100 96 92 90 92 98 93 93 89 92 88 87
93 88 92 88 95 90 97 95 97 98 97 97 97 89 92 93 96 98 94 90 97 97 96 94 92 92 95 91 98 99 102 103 100 95 94 93 98 97 90 94 94 95 94
96 97 102 102 92 91 94 92 98 102 98 94 100 98 95 101 97 101 103 101 99 99 97 101 100 101 103 101 103 104 94 99 99 98 96 100 100 98 97 97 95 97 98
98 101 111 109 108 105 100 99 104 99 100 104 105 109 104 105 108 106 108 103 103 104 101 103 103 101 99 104 105 108 101 101 97 95 96 102 103 98 100 97 100 99 105
83 95 110 112 107 100 105 107 103 102 103 103 103 103 102 106 106 106 106 105 105 105 107 108 106 108 107 105 107 110 106 99 96 100 106 99 104 98 104 101 104 106 117
87 90 92 97 103 108 109 111 108 105 105 106 105 105 107 115 116 113 114 116 116 116 114 112 120 115 109 107 111 105 103 104 103 101 99 101 103 102 104 107 114 120 121
96 95 104 109 112 108 107 107 113 115 112 113 114 116 116 115 112 110 113 121 117 116 125 122 119 122 111 98 101 107 102 98 100 99 106 104 105 107 115 120 125 126 125
100 108 108 107 114 117 115 115 120 116 116 112 113 115 115 120 121 114 112 112 117 116 118 111 106 106 102 106 92 102 99 104 104 105 113 112 117 113 123 130 128 126 128
97 101 108 115 119 121 124 122 118 116 116 120 122 123 121 124 123 122 118 116 115 111 112 111 108 109 102 101 102 97 109 107 111 114 110 118 127 127 129 129 129 131 133
109 111 112 115 124 125 126 129 131 132 128 124 128 129 127 122 118 121 122 123 125 121 113 117 113 114 112 111 110 108 109 113 119 118 126 126 126 126 129 130 133 134 132
116 114 118 129 130 131 136 140 139 139 140 140 139 138 136 133 133 135 127 126 122 121 126 124 122 115 114 115 116 118 121 123 127 125 126 129 131 129 132 136 135 135 130

GFSMA_250_spd_099.txt.gz
Wind_Speed
69 72 72 73 75 75 72 69 67 64 62 60 58 54 52 53 51 51 51 51 47 45 49 45 42 41 45 44 43 42 42 41 41 44 42 45 48 52 51 55 57 61 70
68 70 72 74 75 77 75 72 70 68 66 63 62 60 57 57 56 53 54 53 47 48 55 56 48 41 47 47 44 43 42 40 39 41 45 47 53 55 55 57 62 67 66
66 70 72 70 75 73 75 74 73 71 70 67 64 63 60 57 56 55 54 51 50 52 54 56 50 48 50 43 41 39 41 43 41 39 41 50 53 55 54 58 65 66 62
71 69 67 68 74 69 67 71 77 76 70 68 66 65 63 62 59 59 61 58 54 52 51 57 54 54 52 43 44 44 46 48 44 43 42 49 52 55 55 61 66 69 70
63 67 70 66 72 72 70 68 72 77 73 73 70 67 65 65 66 66 66 65 63 64 65 64 58 57 52 44 48 48 50 53 53 48 47 51 53 53 59 63 68 68 65
64 66 68 68 70 74 76 79 77 77 76 76 75 70 71 71 70 69 67 68 65 64 59 60 60 61 56 47 51 54 57 56 55 51 49 54 55 57 60 61 69 70 67
65 65 66 68 65 69 70 72 76 78 71 72 72 73 70 68 67 69 69 67 65 67 65 61 61 57 53 50 49 53 56 56 57 59 60 61 58 59 63 69 76 76 63
65 67 68 68 68 69 70 69 69 72 73 73 72 69 68 73 72 71 68 69 69 65 62 65 58 55 55 54 53 56 55 62 62 66 66 65 57 60 61 70 81 71 65
66 71 70 64 70 68 69 70 68 71 70 73 75 75 72 69 69 65 65 62 66 64 64 61 58 59 59 60 57 60 61 61 66 66 64 67 64 65 66 78 84 67 67
71 68 68 70 68 70 71 69 66 62 61 59 60 60 62 59 63 63 66 54 57 59 59 62 59 61 62 61 63 63 59 63 65 67 67 63 71 70 72 81 85 76 69
70 69 66 62 60 61 67 67 69 60 61 60 60 60 64 65 67 70 72 74 70 67 63 63 63 67 70 66 67 64 65 62 65 63 66 72 74 76 79 85 84 78 75
73 66 62 59 70 73 78 74 72 79 74 68 60 61 67 69 74 75 75 71 71 70 66 67 65 73 73 71 67 67 67 66 72 73 77 75 76 79 82 87 84 78 73
72 64 64 74 82 76 81 82 82 83 74 73 73 78 74 76 78 75 76 74 75 77 71 69 67 71 66 67 67 69 74 73 73 76 79 81 82 85 89 85 86 76 77
69 66 68 76 78 85 90 89 86 92 86 79 84 87 81 74 79 83 87 78 77 74 74 78 73 78 74 71 76 78 81 84 84 82 82 89 90 90 88 94 94 84 83
67 67 69 78 93 96 98 98 87 89 91 89 94 91 87 100 92 91 90 90 86 83 80 78 76 77 78 86 84 89 87 88 83 89 91 93 87 87 86 92 90 84 90
68 66 69 76 78 86 82 74 79 84 87 92 96 98 88 86 87 84 90 90 91 93 83 81 84 83 89 84 86 87 90 86 90 89 89 81 82 83 91 92 98 91 91
68 69 67 71 73 74 79 83 79 78 78 79 81 86 85 85 85 86 88 87 87 89 83 78 80 79 79 80 88 87 91 93 94 89 87 92 93 93 92 100 91 90 93
68 69 68 67 70 79 88 85 93 89 89 90 90 95 96 93 93 93 92 94 86 88 87 87 88 85 89 85 93 91 90 98 96 96 93 90 93 94 103 109 101 93 93
68 67 70 71 71 80 83 91 94 93 90 92 95 97 104 109 102 98 97 98 100 94 92 91 96 96 94 94 98 102 106 103 99 98 99 102 100 103 112 104 97 91 92
63 69 68 72 72 86 89 88 96 99 99 99 96 97 100 99 99 97 93 97 95 97 98 102 103 109 103 108 107 107 102 100 102 102 101 105 108 107 101 90 92 91 90
64 62 65 72 74 88 96 98 96 100 104 106 104 110 111 110 107 110 110 107 109 108 105 105 109 111 113 109 109 105 108 109 112 111 110 117 113 103 97 92 93 93 98
71 63 72 73 74 79 89 101 105 113 109 106 106 112 112 115 120 119 117 115 110 117 117 109 108 114 117 110 110 118 120 115 112 115 115 104 97 92 95 94 91 95 100
78 79 81 79 78 86 88 89 94 97 103 111 114 116 116 104 107 108 105 108 110 109 111 105 107 108 108 115 111 106 111 112 109 98 102 100 91 88 96 98 94 101 104
85 84 90 93 96 102 105 105 105 107 109 108 113 116 114 113 116 115 114 112 113 107 100 97 100 103 105 101 106 109 109 108 108 103 97 96 97 97 101 104 103 106 106
87 87 90 95 103 108 112 117 119 120 120 119 121 122 124 123 120 116 113 114 115 117 114 114 115 115 111 109 109 111 115 109 110 107 105 109 107 104 104 104 107 112 113
89 95 102 109 110 115 120 124 121 122 123 128 127 128 128 133 137 139 137 127 121 117 123 122 119 117 116 115 113 114 114 114 114 111 114 111 108 110 111 116 115 111 110

GFSMA_250_spd_102.txt.gz
Wind_Speed
60 63 66 65 64 68 72 74 75 72 68 67 67 65 62 60 58 55 54 52 51 50 48 47 49 45 46 51 44 47 43 45 39 36 36 37 36 35 40 46 47 50 53
61 63 65 66 67 67 67 68 72 75 73 71 71 68 67 66 63 61 58 58 56 55 52 50 47 43 47 51 44 46 45 43 40 38 36 37 35 39 38 43 47 51 53
59 56 58 62 66 68 69 68 68 73 76 78 75 73 69 67 67 64 61 62 60 56 54 55 55 52 57 56 53 51 50 45 43 43 40 40 42 45 38 41 46 53 54
63 62 64 64 66 65 68 69 66 68 73 79 78 77 73 70 68 68 65 64 63 62 59 62 59 60 59 60 59 49 49 51 46 44 45 45 48 47 46 50 50 53 51
61 64 66 67 68 65 68 67 68 67 68 75 80 79 75 73 71 68 66 67 66 63 65 60 63 64 58 60 60 52 55 48 45 47 48 50 50 48 51 55 56 53 53
66 61 62 64 66 71 72 67 73 70 69 69 75 79 79 78 76 73 74 70 67 62 60 59 64 65 61 58 56 60 52 45 41 44 47 50 50 51 54 56 56 56 56
71 69 67 65 64 65 67 67 65 66 69 68 71 72 68 68 73 76 75 73 69 70 70 74 67 64 59 62 62 59 55 46 51 45 48 51 51 54 59 59 61 65 56
76 73 75 73 67 66 66 64 68 70 67 68 74 77 75 76 75 76 75 75 77 74 71 72 69 67 63 61 55 53 55 50 50 50 48 53 51 53 54 59 62 57 60
82 81 79 79 73 69 68 69 67 69 69 69 71 72 69 71 71 72 75 75 75 73 70 71 67 61 60 56 55 56 51 47 52 52 54 56 54 53 55 57 61 65 68
89 89 86 83 79 75 72 69 68 64 66 72 76 72 68 69 69 70 69 71 70 68 68 70 66 63 56 55 59 60 54 55 55 55 59 63 61 58 60 62 67 65 70
93 91 89 88 84 78 75 73 70 68 67 71 71 64 66 66 66 59 59 63 68 66 69 68 68 68 70 65 64 62 50 54 58 62 65 59 61 65 64 64 66 73 71
95 92 91 89 85 80 76 74 70 73 72 72 72 68 71 65 60 58 57 62 61 64 66 63 62 64 65 62 61 54 64 65 64 69 58 58 59 60 69 71 73 74 78
90 89 89 84 81 78 77 76 70 73 73 67 63 64 64 65 63 65 57 64 70 70 68 72 72 71 69 66 73 70 67 69 68 68 64 65 69 72 72 71 74 73 79
87 86 81 78 77 74 74 72 69 70 66 64 59 72 73 74 76 76 73 74 79 82 79 78 79 73 73 73 69 73 66 67 67 69 69 73 73 73 72 73 72 80 84
75 77 77 76 75 74 73 69 67 65 68 73 72 78 82 81 82 81 81 80 81 86 87 90 83 83 79 79 78 75 78 76 73 74 75 75 76 76 76 76 79 83 82
73 72 75 75 76 74 69 66 70 67 76 79 81 85 84 85 86 91 92 92 93 93 98 91 91 92 91 78 82 78 74 75 78 75 78 78 78 76 75 84 82 84 79
68 69 68 70 67 67 67 67 70 75 80 84 91 90 91 94 96 96 102 97 90 93 99 100 84 81 74 78 79 78 78 77 75 75 74 74 74 84 85 83 80 79 84
59 60 60 61 61 62 66 68 73 76 86 95 95 92 90 92 86 87 88 89 82 80 80 83 88 83 84 84 85 87 79 77 75 79 84 87 86 84 87 87 90 90 93
53 51 55 56 60 61 67 69 67 76 78 83 90 96 85 83 83 85 89 91 90 87 87 88 92 90 91 89 86 84 89 91 91 90 82 83 87 94 92 90 89 95 99
49 49 51 55 59 61 63 66 69 72 73 74 80 77 82 92 88 85 88 93 97 96 94 94 97 96 95 94 92 90 91 90 86 85 90 90 90 96 92 91 95 97 96
46 46 52 59 62 63 65 68 66 68 70 74 81 83 87 92 95 97 95 94 94 96 105 106 104 103 97 92 98 98 91 95 100 103 103 102 98 95 101 99 96 90 96
50 51 54 54 54 61 64 68 72 75 75 75 82 88 91 100 104 100 105 110 106 104 103 106 107 103 103 101 98 102 111 118 106 97 94 93 101 96 100 98 90 104 91
60 63 64 65 67 69 71 73 72 75 78 84 87 94 97 97 98 103 104 107 109 111 113 115 112 111 109 107 106 104 108 105 110 113 102 99 106 97 89 95 92 91 89
62 66 68 73 80 83 86 85 87 92 92 90 91 93 96 103 107 100 103 104 105 108 108 101 99 101 103 105 107 99 94 96 101 102 91 94 85 83 84 91 88 93 89
61 65 71 76 82 89 93 98 100 103 105 106 106 108 109 110 110 114 116 112 109 108 108 104 99 95 88 84 86 77 80 84 88 86 86 77 85 89 93 92 97 98 99
68 74 77 83 85 87 92 99 107 111 118 122 123 126 124 122 124 123 124 122 119 117 117 115 114 110 106 104 102 101 95 95 95 91 90 95 97 103 103 103 105 101 102

GFSMA_250_spd_105.txt.gz
Wind_Speed
54 56 56 57 58 57 54 55 60 66 70 73 73 72 69 67 65 63 62 61 60 59 58 55 54 52 50 46 45 47 48 47 44 45 44 44 39 40 40 36 37 32 36
50 53 57 59 56 56 55 55 57 60 64 69 72 74 75 74 71 67 66 65 64 62 62 60 57 54 51 47 48 51 54 53 50 50 42 45 45 43 40 41 41 37 41
53 52 54 53 54 56 57 59 61 59 62 64 67 68 73 77 76 72 69 68 67 65 63 62 59 56 52 53 47 47 53 56 45 45 51 46 45 44 45 44 43 40 44
63 59 60 58 59 57 58 60 61 63 63 63 65 65 68 70 77 75 74 72 71 70 66 64 62 58 56 54 55 55 55 52 49 51 46 48 41 42 45 46 42 41 46
68 62 61 63 66 65 61 61 62 63 64 65 69 66 63 63 67 76 80 78 74 73 71 68 64 59 59 54 58 54 60 59 53 50 50 52 43 41 43 47 41 45 46
71 68 66 63 66 63 64 64 62 61 64 66 68 67 66 66 67 69 73 79 79 76 74 71 66 64 60 61 61 65 58 62 61 55 51 50 46 46 44 45 45 47 46
77 75 70 69 71 67 65 63 61 60 60 66 65 67 66 66 65 65 66 73 77 79 79 72 72 72 68 69 68 68 71 69 56 54 47 47 50 48 47 43 48 48 48
83 79 78 75 72 69 68 65 66 65 64 64 66 63 61 63 61 64 67 68 70 72 72 72 72 75 71 74 75 73 69 62 57 50 45 44 46 50 47 47 49 54 55
91 87 85 81 79 76 76 72 71 70 71 69 67 67 62 62 65 67 65 65 69 68 71 71 70 68 68 70 70 70 63 64 60 51 47 45 53 49 51 49 54 53 52
95 94 91 85 82 81 82 77 77 77 78 77 73 71 68 64 70 64 65 74 79 75 72 69 66 69 68 72 71 67 66 55 55 53 51 50 46 53 53 50 51 48 52
92 92 94 90 88 86 83 84 83 83 82 80 78 74 70 66 66 60 65 67 72 71 69 65 66 66 65 72 68 61 53 48 53 53 53 46 49 58 65 57 52 54 53
97 94 94 93 93 91 91 90 89 85 85 85 81 79 72 69 66 66 69 70 62 63 64 64 61 63 65 67 59 53 55 54 52 52 52 57 62 61 64 63 59 57 60
101 99 97 98 99 97 97 94 90 91 90 87 84 77 76 73 69 74 72 73 70 62 63 63 58 62 64 60 60 61 63 63 56 58 57 60 64 68 59 63 61 61 62
104 103 102 102 102 99 97 95 95 92 92 85 81 75 74 76 73 73 71 75 70 64 71 60 71 64 67 72 71 70 68 71 70 64 60 63 66 66 65 63 66 66 63
107 107 106 104 105 103 99 101 99 94 88 82 78 74 75 74 74 73 66 68 64 68 73 73 74 76 74 79 78 77 76 76 79 81 76 79 82 77 67 66 66 65 67
95 100 106 107 106 105 101 97 90 84 80 74 74 75 75 73 74 73 71 71 71 74 76 76 79 83 84 83 79 83 85 87 85 88 86 85 71 64 62 64 72 64 63
76 82 86 89 90 89 86 80 79 75 75 75 76 77 76 75 73 72 72 76 78 81 86 85 88 87 88 87 91 90 89 90 89 88 79 67 68 72 70 77 71 63 69
68 69 72 74 74 72 71 72 73 75 75 77 78 76 75 76 75 79 77 80 85 89 88 90 92 92 91 93 94 96 94 95 88 77 79 76 76 81 73 65 72 77 79
60 62 64 64 64 66 67 68 70 72 71 69 70 66 74 77 77 82 83 85 86 88 94 97 96 96 96 94 88 82 82 84 82 82 78 82 84 73 73 79 77 73 73
55 57 57 57 58 58 57 57 60 59 64 64 63 69 72 75 78 81 90 88 89 84 84 86 91 84 83 85 87 85 88 89 85 88 87 87 83 84 84 82 77 77 76
47 48 48 49 51 53 54 59 61 63 65 66 67 70 75 77 83 88 87 87 84 79 80 85 87 89 92 92 90 90 92 93 94 95 93 96 95 91 83 82 85 85 88
43 48 47 48 47 52 57 57 60 62 70 73 73 73 76 80 81 83 85 89 91 92 87 88 89 91 93 95 93 93 94 95 100 100 98 91 91 92 95 95 94 92 96
41 42 46 53 55 55 59 64 68 72 74 78 80 83 86 83 83 86 86 89 90 91 96 97 98 96 95 97 97 98 99 99 100 102 102 103 104 103 106 100 100 90 91
40 44 47 49 55 59 61 65 69 72 79 84 83 84 87 88 90 93 96 98 99 101 100 99 102 104 105 111 110 106 107 108 108 106 104 103 98 95 94 95 91 85 81
45 49 53 57 61 64 67 70 72 77 80 80 85 94 101 99 99 102 99 99 102 105 104 108 103 103 101 96 95 97 97 97 103 103 97 92 86 85 84 85 79 73 74
51 55 58 63 64 68 71 74 81 82 85 83 91 96 100 103 106 116 118 113 114 115 116 114 114 117 115 113 109 105 99 92 88 87 86 85 87 86 83 83 84 82 81

GFSMA_250_spd_108.txt.gz
Wind_Speed
60 57 55 57 55 53 54 56 53 50 51 53 58 65 66 69 71 70 70 69 67 65 64 63 62 61 60 59 59 55 48 44 43 48 48 44 44 40 44 42 43 42 39
64 62 61 60 58 57 57 59 57 55 52 51 53 52 59 64 68 71 73 74 72 72 70 68 67 65 63 62 61 56 51 46 41 45 49 49 47 44 49 43 45 38 39
62 64 67 65 58 55 56 55 58 56 55 53 53 55 55 55 58 58 62 70 74 78 76 73 72 71 68 64 62 58 55 51 47 49 55 51 54 54 49 44 46 44 43
77 72 67 64 64 59 58 58 57 58 56 59 57 57 56 57 55 57 57 56 61 69 75 78 76 74 73 68 66 63 57 54 53 54 56 56 52 53 51 50 50 43 42
81 75 72 72 66 65 59 60 61 60 60 61 60 61 60 61 59 60 61 60 58 57 66 73 77 76 75 74 69 66 62 58 60 62 59 58 59 61 57 50 46 47 44
84 81 75 79 73 72 71 69 68 67 64 66 66 64 61 60 63 62 61 59 60 61 62 66 71 77 78 76 75 72 62 64 62 67 69 64 61 63 55 44 44 47 50
93 85 78 81 79 77 75 73 69 69 70 68 64 63 60 60 61 57 58 60 57 60 60 62 65 70 74 76 77 78 71 69 67 67 67 67 62 57 52 44 41 44 52
96 84 83 84 85 83 79 78 74 72 73 73 71 68 63 66 62 63 62 61 61 59 60 63 60 61 64 68 72 68 63 64 67 61 71 67 61 56 51 44 38 46 52
95 87 84 87 85 85 83 83 82 80 79 74 69 68 67 65 69 67 65 67 67 61 60 67 67 64 63 60 63 63 65 66 66 62 67 62 55 54 48 46 45 45 46
95 90 87 88 89 86 87 88 87 87 84 80 78 76 76 74 74 72 70 70 71 69 63 66 71 70 70 65 68 67 67 67 66 62 67 62 53 48 49 51 47 46 46
96 94 91 89 91 89 91 88 91 92 90 87 84 82 80 80 78 77 76 75 75 74 70 65 67 66 70 71 74 65 67 66 67 67 58 52 49 47 50 49 47 50 52
99 99 98 95 95 95 93 92 92 92 97 93 90 89 86 83 83 85 81 80 81 78 75 68 65 67 67 69 70 68 63 67 66 61 56 50 51 60 54 49 56 55 56
97 103 105 102 100 97 97 98 96 95 94 95 94 94 91 91 89 90 88 84 87 83 77 72 69 72 72 70 69 65 65 65 63 64 55 51 55 56 54 55 55 60 59
87 94 104 106 105 104 102 101 99 97 97 94 92 94 95 97 96 93 91 88 89 84 78 73 73 74 74 74 75 67 65 70 59 61 58 59 59 62 63 62 62 60 66
82 88 92 97 103 108 107 103 102 102 102 100 98 97 96 98 100 97 96 94 88 82 78 76 75 77 78 77 71 68 67 67 69 59 70 67 67 69 73 72 75 74 74
78 81 85 89 93 99 105 107 107 106 104 104 105 104 104 102 101 100 96 93 83 81 79 78 76 73 76 71 69 70 77 80 76 74 75 70 75 74 77 77 78 78 80
74 77 79 81 85 88 93 99 101 103 103 106 106 106 104 101 97 94 93 85 80 81 80 76 75 72 72 72 72 73 79 83 81 76 80 80 81 79 83 83 83 82 75
71 75 79 81 84 86 88 90 92 95 97 99 98 97 96 93 88 81 79 81 81 82 82 79 78 78 78 78 76 82 83 84 86 85 84 85 86 88 88 89 86 82 71
58 62 66 69 72 75 78 81 83 84 85 85 85 82 81 79 76 78 81 82 82 83 81 80 80 81 83 83 83 87 90 91 90 92 94 92 94 93 90 85 78 71 70
48 52 55 58 61 64 66 68 69 71 72 71 73 71 75 76 73 75 79 79 79 80 84 82 83 84 86 86 89 92 90 90 91 91 94 93 90 87 90 86 80 78 73
45 49 51 52 53 56 57 59 60 61 61 65 67 70 73 70 72 76 76 78 79 79 82 86 91 89 88 92 95 95 94 95 93 92 90 90 89 89 88 85 86 82 83
37 41 44 46 48 49 52 52 52 54 54 59 62 66 67 67 71 74 73 74 72 81 84 85 94 93 93 94 102 104 101 95 98 96 93 89 91 90 91 89 86 85 87
39 40 42 42 44 45 48 50 53 54 55 59 61 65 71 75 78 79 77 75 80 80 81 85 89 91 94 98 99 99 97 97 96 95 94 92 90 89 89 86 87 89 89
33 37 39 41 43 45 46 49 52 55 59 62 64 67 68 73 78 81 83 87 89 89 89 91 93 91 88 91 97 97 99 98 97 95 93 93 94 95 95 92 94 97 97
40 43 45 48 50 53 55 57 59 62 65 68 70 75 76 80 81 83 84 88 93 94 99 101 103 102 100 100 101 98 94 97 97 98 101 101 105 104 101 97 97 93 89
50 52 54 55 57 60 63 65 67 70 73 76 80 84 85 86 90 93 97 99 99 103 107 107 107 109 108 107 108 109 109 108 107 98 96 96 94 96 95 91 87 86 82

GFSMA_250_spd_111.txt.gz
Wind_Speed
55 58 56 57 57 56 55 52 49 48 49 50 50 49 48 49 55 60 65 69 70 70 69 69 69 68 68 65 64 63 62 60 57 54 49 39 35 39 44 44 47 49 46
66 61 60 55 62 60 59 56 55 53 55 56 58 56 51 51 50 49 51 53 57 63 65 68 70 72 74 74 70 67 66 63 61 55 52 49 45 50 51 51 51 53 51
73 70 65 65 60 58 61 59 58 56 57 57 60 59 57 54 54 49 48 45 48 49 54 55 55 56 65 70 74 73 71 69 65 61 56 53 52 56 57 55 55 53 54
80 77 74 70 72 67 61 64 64 64 64 60 62 60 56 57 55 55 54 52 52 52 51 53 55 55 53 52 59 70 75 71 67 65 62 56 54 60 60 59 59 57 56
86 80 81 76 78 79 71 68 66 64 66 62 60 62 58 57 59 56 53 56 56 55 55 58 59 56 53 54 54 58 65 70 70 68 66 60 57 60 63 63 61 57 55
91 87 85 83 85 87 81 76 72 72 71 66 64 63 61 61 62 60 57 60 58 57 56 56 56 55 54 53 55 58 60 64 68 70 70 66 62 64 62 61 59 60 55
94 91 91 90 91 94 81 81 81 78 77 74 73 69 68 69 69 66 63 64 61 61 60 60 60 56 56 54 56 56 54 59 64 66 66 67 65 64 67 67 66 61 54
90 91 92 93 94 95 87 85 84 81 80 81 78 74 73 73 72 73 69 67 69 68 63 61 62 61 60 58 59 57 54 55 58 59 57 53 58 58 62 59 56 52 47
93 94 94 91 92 94 92 90 86 84 84 84 79 81 80 77 78 76 75 70 72 69 67 66 68 67 66 64 59 61 60 61 60 56 56 57 58 59 60 60 55 53 51
101 98 98 95 95 99 96 90 89 86 88 88 85 84 87 85 83 81 78 77 76 76 73 73 73 71 69 69 63 63 65 65 62 62 60 65 66 63 60 57 58 54 49
102 106 105 104 102 102 102 95 91 83 88 91 94 89 91 90 86 85 84 84 82 82 80 78 76 75 74 73 71 69 69 69 69 71 69 69 65 62 61 63 56 48 46
101 102 104 108 103 102 102 101 99 92 90 92 91 91 89 90 90 91 89 90 89 87 86 84 82 81 78 77 76 75 75 71 69 68 67 64 64 59 61 60 57 54 50
95 95 96 99 99 103 104 104 104 104 101 98 95 92 91 91 93 93 93 92 94 94 92 90 89 87 85 84 80 80 78 74 70 68 66 63 62 57 61 63 61 56 54
82 84 84 86 90 97 103 108 109 109 107 105 102 101 99 95 96 96 95 93 92 94 96 93 93 91 90 90 86 83 82 75 74 73 74 70 65 64 57 57 57 56 58
67 73 76 79 82 85 91 96 102 110 112 108 105 105 106 104 104 101 97 96 97 95 93 94 93 94 93 93 94 87 86 78 76 73 70 70 65 64 65 64 60 65 64
69 71 72 73 77 81 85 89 94 98 105 110 112 111 110 111 110 105 101 101 101 99 99 99 99 97 98 96 94 89 86 81 77 75 77 80 71 64 63 64 67 70 69
66 68 70 72 74 76 79 82 86 90 93 98 101 103 108 109 110 111 109 106 106 104 102 102 103 102 101 98 96 88 84 79 78 74 67 67 69 70 69 75 78 79 80
54 58 64 69 73 75 78 81 83 86 89 91 91 93 97 97 98 100 103 106 106 105 106 106 104 101 103 98 88 83 80 78 76 71 68 75 72 72 75 76 79 76 78
45 49 52 56 61 66 71 75 77 81 83 85 86 88 91 91 92 92 92 94 95 96 97 98 95 93 89 88 82 81 80 79 76 76 73 76 73 78 80 79 81 81 84
36 40 43 47 52 56 60 66 69 73 75 77 79 82 83 83 84 85 86 85 84 85 82 80 78 79 80 77 79 81 83 82 82 83 85 84 82 81 79 80 81 84 84
34 36 38 41 44 48 52 55 58 62 64 66 69 71 73 74 73 73 74 73 72 73 74 74 75 76 78 80 81 84 85 84 83 83 86 91 92 88 87 90 90 91 88
34 35 37 39 42 44 47 49 52 55 58 60 62 63 64 64 64 66 68 67 72 72 71 68 72 76 75 76 78 79 83 86 84 85 88 87 91 94 95 91 92 93 91
36 40 42 45 47 45 47 48 50 53 55 57 59 60 60 62 63 65 68 70 74 74 76 72 73 74 77 72 76 81 86 86 85 90 93 92 94 93 92 93 96 99 97
35 36 38 40 43 46 49 51 50 51 54 55 55 56 60 63 64 66 70 73 74 76 78 80 81 84 82 84 84 83 82 86 87 88 91 91 93 92 94 92 89 88 86
45 45 45 45 46 47 49 52 54 55 57 60 63 66 66 69 72 74 75 76 78 80 82 83 88 90 91 94 94 92 91 93 89 87 87 90 88 88 89 92 92 94 91
53 54 54 55 56 58 60 62 63 65 67 69 71 73 74 78 79 80 81 83 83 86 88 89 90 91 95 98 99 99 99 100 101 95 95 96 93 88 87 86 87 87 88